Wetterdaten: Sonntag, 25.04.2021
Datum Zeit Temp. Aussen Temp. o. S. Temp +5cm Feuchte Auss Luftdruck Regen Sonnenschein Regendauer Solar Windben Empfang
25.04.2021 00:00 7,4 C 6,7 C 3,9 C 68 % 1026,3 hPa 0,0 l/m 0 min 0 min 0 W/m 6,4 km/h (2 Bft) 97,87 %
25.04.2021 00:02 7,4 C 6,7 C 3,9 C 68 % 1026,3 hPa 0,0 l/m 0 min 0 min 0 W/m 19,3 km/h (3 Bft) 97,30 %
25.04.2021 00:04 7,4 C 6,7 C 3,9 C 68 % 1026,3 hPa 0,0 l/m 0 min 0 min 0 W/m 12,9 km/h (3 Bft) 97,87 %
25.04.2021 00:08 7,3 C 6,1 C 3,9 C 69 % 1026,4 hPa 0,0 l/m 0 min 0 min 0 W/m 12,9 km/h (3 Bft) 96,81 %
25.04.2021 00:10 7,2 C 6,1 C 3,9 C 69 % 1026,4 hPa 0,0 l/m 0 min 0 min 0 W/m 12,9 km/h (3 Bft) 97,87 %
25.04.2021 00:12 7,1 C 6,1 C 3,9 C 69 % 1026,4 hPa 0,0 l/m 0 min 0 min 0 W/m 12,9 km/h (3 Bft) 97,87 %
25.04.2021 00:14 7,1 C 6,1 C 3,9 C 69 % 1026,4 hPa 0,0 l/m 0 min 0 min 0 W/m 22,5 km/h (4 Bft) 95,65 %
25.04.2021 00:16 7,1 C 6,1 C 3,9 C 70 % 1026,4 hPa 0,0 l/m 0 min 0 min 0 W/m 9,7 km/h (2 Bft) 95,74 %
25.04.2021 00:18 7,0 C 6,1 C 3,9 C 70 % 1026,5 hPa 0,0 l/m 0 min 0 min 0 W/m 9,7 km/h (2 Bft) 97,87 %
25.04.2021 00:20 7,0 C 6,1 C 3,9 C 70 % 1026,5 hPa 0,0 l/m 0 min 0 min 0 W/m 12,9 km/h (3 Bft) 97,87 %
25.04.2021 00:22 7,0 C 6,1 C 3,9 C 70 % 1026,5 hPa 0,0 l/m 0 min 0 min 0 W/m 19,3 km/h (3 Bft) 97,87 %
25.04.2021 00:24 6,9 C 6,1 C 3,9 C 70 % 1026,5 hPa 0,0 l/m 0 min 0 min 0 W/m 12,9 km/h (3 Bft) 97,87 %
25.04.2021 00:26 6,9 C 6,1 C 3,9 C 70 % 1026,5 hPa 0,0 l/m 0 min 0 min 0 W/m 9,7 km/h (2 Bft) 97,83 %
25.04.2021 00:28 6,9 C 6,1 C 3,4 C 71 % 1026,5 hPa 0,0 l/m 0 min 0 min 0 W/m 16,1 km/h (3 Bft) 97,87 %
25.04.2021 00:30 6,8 C 6,1 C 3,9 C 71 % 1026,6 hPa 0,0 l/m 0 min 0 min 0 W/m 12,9 km/h (3 Bft) 97,87 %
25.04.2021 00:32 6,8 C 6,1 C 3,4 C 71 % 1026,6 hPa 0,0 l/m 0 min 0 min 0 W/m 12,9 km/h (3 Bft) 95,74 %
25.04.2021 00:34 6,8 C 6,1 C 3,4 C 71 % 1026,6 hPa 0,0 l/m 0 min 0 min 0 W/m 16,1 km/h (3 Bft) 97,87 %
25.04.2021 00:36 6,7 C 6,1 C 3,4 C 71 % 1026,7 hPa 0,0 l/m 0 min 0 min 0 W/m 9,7 km/h (2 Bft) 95,65 %
25.04.2021 00:38 6,7 C 6,1 C 3,4 C 71 % 1026,7 hPa 0,0 l/m 0 min 0 min 0 W/m 12,9 km/h (3 Bft) 95,74 %
25.04.2021 00:40 6,6 C 6,1 C 3,4 C 71 % 1026,7 hPa 0,0 l/m 0 min 0 min 0 W/m 16,1 km/h (3 Bft) 93,62 %
25.04.2021 00:42 6,6 C 5,6 C 3,4 C 71 % 1026,7 hPa 0,0 l/m 0 min 0 min 0 W/m 9,7 km/h (2 Bft) 95,74 %
25.04.2021 00:44 6,6 C 5,6 C 3,4 C 71 % 1026,7 hPa 0,0 l/m 0 min 0 min 0 W/m 6,4 km/h (2 Bft) 95,74 %
25.04.2021 00:46 6,6 C 5,6 C 3,4 C 71 % 1026,8 hPa 0,0 l/m 0 min 0 min 0 W/m 9,7 km/h (2 Bft) 95,74 %
25.04.2021 00:48 6,5 C 5,6 C 3,4 C 71 % 1026,8 hPa 0,0 l/m 0 min 0 min 0 W/m 6,4 km/h (2 Bft) 97,83 %
25.04.2021 00:50 6,5 C 5,6 C 3,4 C 72 % 1026,8 hPa 0,0 l/m 0 min 0 min 0 W/m 3,2 km/h (1 Bft) 97,87 %
25.04.2021 00:52 6,5 C 5,6 C 3,4 C 72 % 1026,9 hPa 0,0 l/m 0 min 0 min 0 W/m 6,4 km/h (2 Bft) 97,87 %
25.04.2021 00:54 6,4 C 5,6 C 3,4 C 72 % 1026,8 hPa 0,0 l/m 0 min 0 min 0 W/m 16,1 km/h (3 Bft) 95,74 %
25.04.2021 00:56 6,4 C 5,6 C 3,4 C 72 % 1026,9 hPa 0,0 l/m 0 min 0 min 0 W/m 6,4 km/h (2 Bft) 97,87 %
25.04.2021 00:58 6,4 C 5,6 C 3,4 C 72 % 1026,9 hPa 0,0 l/m 0 min 0 min 0 W/m 16,1 km/h (3 Bft) 97,87 %
25.04.2021 01:00 6,4 C 5,6 C 3,4 C 73 % 1026,9 hPa 0,0 l/m 0 min 0 min 0 W/m 12,9 km/h (3 Bft) 95,74 %
25.04.2021 01:02 6,3 C 5,6 C 3,4 C 73 % 1026,9 hPa 0,0 l/m 0 min 0 min 0 W/m 12,9 km/h (3 Bft) 97,83 %
25.04.2021 01:04 6,3 C 5,6 C 2,8 C 73 % 1026,9 hPa 0,0 l/m 0 min 0 min 0 W/m 6,4 km/h (2 Bft) 95,74 %
25.04.2021 01:06 6,3 C 5,6 C 2,8 C 73 % 1026,9 hPa 0,0 l/m 0 min 0 min 0 W/m 12,9 km/h (3 Bft) 95,74 %
25.04.2021 01:08 6,2 C 5,6 C 2,8 C 73 % 1026,9 hPa 0,0 l/m 0 min 0 min 0 W/m 6,4 km/h (2 Bft) 95,74 %
25.04.2021 01:10 6,2 C 5,6 C 2,8 C 73 % 1026,9 hPa 0,0 l/m 0 min 0 min 0 W/m 9,7 km/h (2 Bft) 97,87 %
25.04.2021 01:12 6,1 C 5,0 C 2,8 C 73 % 1026,9 hPa 0,0 l/m 0 min 0 min 0 W/m 12,9 km/h (3 Bft) 97,83 %
25.04.2021 01:14 6,1 C 5,0 C 2,8 C 73 % 1026,9 hPa 0,0 l/m 0 min 0 min 0 W/m 9,7 km/h (2 Bft) 97,87 %
25.04.2021 01:16 6,1 C 5,0 C 2,8 C 74 % 1026,9 hPa 0,0 l/m 0 min 0 min 0 W/m 6,4 km/h (2 Bft) 97,87 %
25.04.2021 01:18 6,0 C 5,0 C 2,8 C 74 % 1026,9 hPa 0,0 l/m 0 min 0 min 0 W/m 22,5 km/h (4 Bft) 97,87 %
25.04.2021 01:20 6,0 C 5,0 C 2,8 C 74 % 1026,9 hPa 0,0 l/m 0 min 0 min 0 W/m 19,3 km/h (3 Bft) 97,87 %
25.04.2021 01:22 6,0 C 5,0 C 2,8 C 74 % 1026,9 hPa 0,0 l/m 0 min 0 min 0 W/m 9,7 km/h (2 Bft) 97,87 %
25.04.2021 01:24 6,0 C 5,0 C 2,8 C 74 % 1026,9 hPa 0,0 l/m 0 min 0 min 0 W/m 9,7 km/h (2 Bft) 100,00 %
25.04.2021 01:26 6,0 C 5,0 C 2,8 C 74 % 1026,9 hPa 0,0 l/m 0 min 0 min 0 W/m 12,9 km/h (3 Bft) 95,74 %
25.04.2021 01:28 5,9 C 5,0 C 2,8 C 74 % 1026,9 hPa 0,0 l/m 0 min 0 min 0 W/m 9,7 km/h (2 Bft) 100,00 %
25.04.2021 01:30 5,9 C 5,0 C 2,8 C 74 % 1026,9 hPa 0,0 l/m 0 min 0 min 0 W/m 16,1 km/h (3 Bft) 100,00 %
25.04.2021 01:32 5,9 C 5,0 C 2,8 C 74 % 1026,9 hPa 0,0 l/m 0 min 0 min 0 W/m 12,9 km/h (3 Bft) 100,00 %
25.04.2021 01:34 5,9 C 5,0 C 2,8 C 75 % 1026,9 hPa 0,0 l/m 0 min 0 min 0 W/m 19,3 km/h (3 Bft) 100,00 %
25.04.2021 01:36 5,9 C 5,0 C 2,8 C 75 % 1027,0 hPa 0,0 l/m 0 min 0 min 0 W/m 9,7 km/h (2 Bft) 100,00 %
25.04.2021 01:38 5,9 C 5,0 C 2,8 C 75 % 1027,0 hPa 0,0 l/m 0 min 0 min 0 W/m 6,4 km/h (2 Bft) 97,87 %
25.04.2021 01:40 5,8 C 5,0 C 2,8 C 75 % 1027,0 hPa 0,0 l/m 0 min 0 min 0 W/m 9,7 km/h (2 Bft) 100,00 %
25.04.2021 01:42 5,8 C 5,0 C 2,8 C 75 % 1027,0 hPa 0,0 l/m 0 min 0 min 0 W/m 6,4 km/h (2 Bft) 100,00 %
25.04.2021 01:44 5,8 C 5,0 C 2,8 C 75 % 1027,0 hPa 0,0 l/m 0 min 0 min 0 W/m 16,1 km/h (3 Bft) 100,00 %
25.04.2021 01:46 5,8 C 5,0 C 2,8 C 75 % 1027,0 hPa 0,0 l/m 0 min 0 min 0 W/m 22,5 km/h (4 Bft) 100,00 %
25.04.2021 01:48 5,7 C 5,0 C 2,8 C 75 % 1027,0 hPa 0,0 l/m 0 min 0 min 0 W/m 9,7 km/h (2 Bft) 97,83 %
25.04.2021 01:50 5,7 C 5,0 C 2,8 C 75 % 1027,0 hPa 0,0 l/m 0 min 0 min 0 W/m 12,9 km/h (3 Bft) 100,00 %
25.04.2021 01:52 5,7 C 5,0 C 2,8 C 75 % 1027,0 hPa 0,0 l/m 0 min 0 min 0 W/m 12,9 km/h (3 Bft) 100,00 %
25.04.2021 01:54 5,6 C 5,0 C 2,3 C 75 % 1027,0 hPa 0,0 l/m 0 min 0 min 0 W/m 16,1 km/h (3 Bft) 100,00 %
25.04.2021 01:56 5,6 C 5,0 C 2,3 C 76 % 1027,0 hPa 0,0 l/m 0 min 0 min 0 W/m 9,7 km/h (2 Bft) 100,00 %
25.04.2021 01:58 5,6 C 5,0 C 2,3 C 76 % 1027,0 hPa 0,0 l/m 0 min 0 min 0 W/m 6,4 km/h (2 Bft) 100,00 %
25.04.2021 02:00 5,6 C 5,0 C 2,3 C 76 % 1027,0 hPa 0,0 l/m 0 min 0 min 0 W/m 6,4 km/h (2 Bft) 100,00 %
25.04.2021 02:02 5,6 C 5,0 C 2,3 C 76 % 1027,0 hPa 0,0 l/m 0 min 0 min 0 W/m 9,7 km/h (2 Bft) 100,00 %
25.04.2021 02:04 5,5 C 5,0 C 2,3 C 76 % 1027,0 hPa 0,0 l/m 0 min 0 min 0 W/m 12,9 km/h (3 Bft) 100,00 %
25.04.2021 02:06 5,5 C 5,0 C 2,3 C 76 % 1027,0 hPa 0,0 l/m 0 min 0 min 0 W/m 9,7 km/h (2 Bft) 100,00 %
25.04.2021 02:08 5,5 C 4,4 C 2,3 C 76 % 1027,0 hPa 0,0 l/m 0 min 0 min 0 W/m 9,7 km/h (2 Bft) 100,00 %
25.04.2021 02:10 5,5 C 4,4 C 2,3 C 76 % 1027,0 hPa 0,0 l/m 0 min 0 min 0 W/m 12,9 km/h (3 Bft) 100,00 %
25.04.2021 02:12 5,5 C 4,4 C 2,3 C 76 % 1027,0 hPa 0,0 l/m 0 min 0 min 0 W/m 6,4 km/h (2 Bft) 97,83 %
25.04.2021 02:14 5,5 C 4,4 C 2,3 C 76 % 1027,0 hPa 0,0 l/m 0 min 0 min 0 W/m 9,7 km/h (2 Bft) 100,00 %
25.04.2021 02:16 5,4 C 4,4 C 2,3 C 77 % 1027,0 hPa 0,0 l/m 0 min 0 min 0 W/m 12,9 km/h (3 Bft) 100,00 %
25.04.2021 02:18 5,4 C 4,4 C 2,3 C 77 % 1027,0 hPa 0,0 l/m 0 min 0 min 0 W/m 9,7 km/h (2 Bft) 100,00 %
25.04.2021 02:20 5,4 C 4,4 C 2,3 C 77 % 1027,0 hPa 0,0 l/m 0 min 0 min 0 W/m 9,7 km/h (2 Bft) 100,00 %
25.04.2021 02:22 5,4 C 4,4 C 2,3 C 77 % 1027,0 hPa 0,0 l/m 0 min 0 min 0 W/m 6,4 km/h (2 Bft) 100,00 %
25.04.2021 02:24 5,4 C 4,4 C 2,3 C 77 % 1027,0 hPa 0,0 l/m 0 min 0 min 0 W/m 9,7 km/h (2 Bft) 100,00 %
25.04.2021 02:26 5,3 C 4,4 C 2,3 C 77 % 1026,9 hPa 0,0 l/m 0 min 0 min 0 W/m 3,2 km/h (1 Bft) 100,00 %
25.04.2021 02:28 5,3 C 4,4 C 2,3 C 77 % 1027,0 hPa 0,0 l/m 0 min 0 min 0 W/m 6,4 km/h (2 Bft) 100,00 %
25.04.2021 02:30 5,3 C 4,4 C 2,3 C 77 % 1026,9 hPa 0,0 l/m 0 min 0 min 0 W/m 6,4 km/h (2 Bft) 100,00 %
25.04.2021 02:32 5,3 C 4,4 C 2,3 C 77 % 1027,0 hPa 0,0 l/m 0 min 0 min 0 W/m 6,4 km/h (2 Bft) 97,87 %
25.04.2021 02:34 5,3 C 4,4 C 2,3 C 77 % 1026,9 hPa 0,0 l/m 0 min 0 min 0 W/m 9,7 km/h (2 Bft) 100,00 %
25.04.2021 02:36 5,3 C 4,4 C 2,3 C 77 % 1026,9 hPa 0,0 l/m 0 min 0 min 0 W/m 6,4 km/h (2 Bft) 100,00 %
25.04.2021 02:38 5,3 C 4,4 C 2,3 C 78 % 1026,9 hPa 0,0 l/m 0 min 0 min 0 W/m 3,2 km/h (1 Bft) 97,87 %
25.04.2021 02:40 5,2 C 4,4 C 2,3 C 78 % 1026,9 hPa 0,0 l/m 0 min 0 min 0 W/m 3,2 km/h (1 Bft) 100,00 %
25.04.2021 02:42 5,2 C 4,4 C 2,3 C 78 % 1026,9 hPa 0,0 l/m 0 min 0 min 0 W/m 9,7 km/h (2 Bft) 100,00 %
25.04.2021 02:44 5,1 C 4,4 C 2,3 C 78 % 1026,9 hPa 0,0 l/m 0 min 0 min 0 W/m 3,2 km/h (1 Bft) 100,00 %
25.04.2021 02:46 5,1 C 3,9 C 1,7 C 78 % 1026,9 hPa 0,0 l/m 0 min 0 min 0 W/m 0,0 km/h (0 Bft) 97,83 %
25.04.2021 02:48 5,1 C 3,9 C 1,7 C 78 % 1026,9 hPa 0,0 l/m 0 min 0 min 0 W/m 6,4 km/h (2 Bft) 97,87 %
25.04.2021 02:50 5,1 C 3,9 C 1,7 C 78 % 1026,9 hPa 0,0 l/m 0 min 0 min 0 W/m 3,2 km/h (1 Bft) 100,00 %
25.04.2021 02:52 5,1 C 3,9 C 1,7 C 78 % 1026,8 hPa 0,0 l/m 0 min 0 min 0 W/m 6,4 km/h (2 Bft) 97,87 %
25.04.2021 02:54 5,0 C 3,9 C 1,7 C 78 % 1026,8 hPa 0,0 l/m 0 min 0 min 0 W/m 6,4 km/h (2 Bft) 97,87 %
25.04.2021 02:56 5,0 C 3,9 C 1,7 C 78 % 1026,8 hPa 0,0 l/m 0 min 0 min 0 W/m 9,7 km/h (2 Bft) 97,87 %
25.04.2021 02:58 5,0 C 3,9 C 1,7 C 78 % 1026,9 hPa 0,0 l/m 0 min 0 min 0 W/m 9,7 km/h (2 Bft) 97,83 %
25.04.2021 03:00 4,9 C 3,9 C 1,7 C 78 % 1026,9 hPa 0,0 l/m 0 min 0 min 0 W/m 3,2 km/h (1 Bft) 97,87 %
25.04.2021 03:02 4,9 C 3,9 C 1,7 C 78 % 1026,9 hPa 0,0 l/m 0 min 0 min 0 W/m 3,2 km/h (1 Bft) 97,87 %
25.04.2021 03:04 4,9 C 3,9 C 1,7 C 78 % 1026,9 hPa 0,0 l/m 0 min 0 min 0 W/m 6,4 km/h (2 Bft) 97,87 %
25.04.2021 03:06 4,9 C 3,9 C 1,7 C 79 % 1026,9 hPa 0,0 l/m 0 min 0 min 0 W/m 3,2 km/h (1 Bft) 96,08 %
25.04.2021 03:08 4,8 C 3,9 C 1,7 C 79 % 1026,9 hPa 0,0 l/m 0 min 0 min 0 W/m 9,7 km/h (2 Bft) 97,78 %
25.04.2021 03:10 4,8 C 3,9 C 1,7 C 78 % 1026,9 hPa 0,0 l/m 0 min 0 min 0 W/m 3,2 km/h (1 Bft) 97,83 %
25.04.2021 03:12 4,8 C 3,9 C 1,7 C 79 % 1026,9 hPa 0,0 l/m 0 min 0 min 0 W/m 6,4 km/h (2 Bft) 95,74 %
25.04.2021 03:14 4,8 C 3,9 C 1,7 C 79 % 1026,9 hPa 0,0 l/m 0 min 0 min 0 W/m 3,2 km/h (1 Bft) 97,87 %
25.04.2021 03:16 4,8 C 3,9 C 1,7 C 79 % 1026,9 hPa 0,0 l/m 0 min 0 min 0 W/m 3,2 km/h (1 Bft) 97,87 %
25.04.2021 03:18 4,7 C 3,9 C 1,7 C 79 % 1026,9 hPa 0,0 l/m 0 min 0 min 0 W/m 3,2 km/h (1 Bft) 97,87 %
25.04.2021 03:20 4,6 C 3,3 C 1,7 C 79 % 1026,8 hPa 0,0 l/m 0 min 0 min 0 W/m 6,4 km/h (2 Bft) 95,74 %
25.04.2021 03:22 4,6 C 3,3 C 1,7 C 79 % 1026,8 hPa 0,0 l/m 0 min 0 min 0 W/m 6,4 km/h (2 Bft) 97,83 %
25.04.2021 03:24 4,6 C 3,3 C 1,1 C 79 % 1026,8 hPa 0,0 l/m 0 min 0 min 0 W/m 6,4 km/h (2 Bft) 95,74 %
25.04.2021 03:26 4,5 C 3,3 C 1,1 C 79 % 1026,8 hPa 0,0 l/m 0 min 0 min 0 W/m 3,2 km/h (1 Bft) 97,87 %
25.04.2021 03:28 4,5 C 3,3 C 1,1 C 79 % 1026,8 hPa 0,0 l/m 0 min 0 min 0 W/m 6,4 km/h (2 Bft) 97,87 %
25.04.2021 03:30 4,5 C 3,3 C 1,1 C 79 % 1026,8 hPa 0,0 l/m 0 min 0 min 0 W/m 9,7 km/h (2 Bft) 97,87 %
25.04.2021 03:32 4,5 C 3,3 C 1,1 C 79 % 1026,8 hPa 0,0 l/m 0 min 0 min 0 W/m 9,7 km/h (2 Bft) 95,74 %
25.04.2021 03:34 4,4 C 3,3 C 1,7 C 80 % 1026,9 hPa 0,0 l/m 0 min 0 min 0 W/m 12,9 km/h (3 Bft) 97,83 %
25.04.2021 03:36 4,4 C 3,3 C 1,1 C 80 % 1026,9 hPa 0,0 l/m 0 min 0 min 0 W/m 3,2 km/h (1 Bft) 97,87 %
25.04.2021 03:38 4,4 C 3,3 C 1,1 C 80 % 1026,9 hPa 0,0 l/m 0 min 0 min 0 W/m 6,4 km/h (2 Bft) 97,87 %
25.04.2021 03:40 4,4 C 3,3 C 1,1 C 80 % 1026,9 hPa 0,0 l/m 0 min 0 min 0 W/m 9,7 km/h (2 Bft) 97,87 %
25.04.2021 03:42 4,4 C 3,3 C 1,1 C 80 % 1026,9 hPa 0,0 l/m 0 min 0 min 0 W/m 6,4 km/h (2 Bft) 95,74 %
25.04.2021 03:44 4,3 C 3,3 C 1,1 C 80 % 1026,9 hPa 0,0 l/m 0 min 0 min 0 W/m 6,4 km/h (2 Bft) 97,87 %
25.04.2021 03:46 4,3 C 3,3 C 1,1 C 80 % 1026,9 hPa 0,0 l/m 0 min 0 min 0 W/m 12,9 km/h (3 Bft) 97,83 %
25.04.2021 03:48 4,3 C 3,3 C 1,1 C 80 % 1026,9 hPa 0,0 l/m 0 min 0 min 0 W/m 6,4 km/h (2 Bft) 97,87 %
25.04.2021 03:50 4,2 C 3,3 C 1,1 C 81 % 1026,9 hPa 0,0 l/m 0 min 0 min 0 W/m 6,4 km/h (2 Bft) 93,62 %
25.04.2021 03:52 4,2 C 3,3 C 1,1 C 81 % 1026,9 hPa 0,0 l/m 0 min 0 min 0 W/m 6,4 km/h (2 Bft) 97,87 %
25.04.2021 03:54 4,1 C 3,3 C 1,1 C 81 % 1026,8 hPa 0,0 l/m 0 min 0 min 0 W/m 6,4 km/h (2 Bft) 95,74 %
25.04.2021 03:56 4,1 C 3,3 C 1,1 C 81 % 1026,9 hPa 0,0 l/m 0 min 0 min 0 W/m 3,2 km/h (1 Bft) 97,83 %
25.04.2021 03:58 4,1 C 3,3 C 1,1 C 81 % 1026,9 hPa 0,0 l/m 0 min 0 min 0 W/m 9,7 km/h (2 Bft) 95,74 %
25.04.2021 04:00 4,1 C 3,3 C 1,1 C 81 % 1026,9 hPa 0,0 l/m 0 min 0 min 0 W/m 6,4 km/h (2 Bft) 93,62 %
25.04.2021 04:05 4,0 C 3,3 C 1,1 C 82 % 1026,9 hPa 0,0 l/m 0 min 0 min 0 W/m 6,4 km/h (2 Bft) 100,00 %
25.04.2021 04:06 4,0 C 3,3 C 1,1 C 82 % 1026,9 hPa 0,0 l/m 0 min 0 min 0 W/m 3,2 km/h (1 Bft) 95,83 %
25.04.2021 04:08 4,0 C 3,3 C 1,1 C 82 % 1026,9 hPa 0,0 l/m 0 min 0 min 0 W/m 6,4 km/h (2 Bft) 97,83 %
25.04.2021 04:10 4,0 C 3,3 C 1,1 C 82 % 1026,9 hPa 0,0 l/m 0 min 0 min 0 W/m 6,4 km/h (2 Bft) 97,87 %
25.04.2021 04:12 4,0 C 3,3 C 1,1 C 82 % 1027,0 hPa 0,0 l/m 0 min 0 min 0 W/m 3,2 km/h (1 Bft) 100,00 %
25.04.2021 04:14 4,0 C 3,3 C 1,1 C 82 % 1026,9 hPa 0,0 l/m 0 min 0 min 0 W/m 6,4 km/h (2 Bft) 97,87 %
25.04.2021 04:16 4,0 C 3,3 C 1,1 C 82 % 1027,0 hPa 0,0 l/m 0 min 0 min 0 W/m 3,2 km/h (1 Bft) 96,77 %
25.04.2021 04:18 4,0 C 3,3 C 1,1 C 82 % 1027,0 hPa 0,0 l/m 0 min 0 min 0 W/m 9,7 km/h (2 Bft) 100,00 %
25.04.2021 04:20 3,9 C 3,3 C 1,1 C 82 % 1027,0 hPa 0,0 l/m 0 min 0 min 0 W/m 6,4 km/h (2 Bft) 91,30 %
25.04.2021 04:22 3,9 C 3,3 C 1,1 C 82 % 1027,0 hPa 0,0 l/m 0 min 0 min 0 W/m 3,2 km/h (1 Bft) 95,74 %
25.04.2021 04:24 3,9 C 2,8 C 1,1 C 82 % 1027,0 hPa 0,0 l/m 0 min 0 min 0 W/m 12,9 km/h (3 Bft) 95,74 %
25.04.2021 04:26 3,9 C 2,8 C 1,1 C 82 % 1027,0 hPa 0,0 l/m 0 min 0 min 0 W/m 6,4 km/h (2 Bft) 95,74 %
25.04.2021 04:28 3,9 C 2,8 C 1,1 C 82 % 1027,0 hPa 0,0 l/m 0 min 0 min 0 W/m 6,4 km/h (2 Bft) 93,62 %
25.04.2021 04:30 3,9 C 2,8 C 1,1 C 82 % 1027,0 hPa 0,0 l/m 0 min 0 min 0 W/m 6,4 km/h (2 Bft) 95,74 %
25.04.2021 04:32 3,9 C 2,8 C 1,1 C 82 % 1027,0 hPa 0,0 l/m 0 min 0 min 0 W/m 6,4 km/h (2 Bft) 97,83 %
25.04.2021 04:34 3,8 C 2,8 C 0,6 C 82 % 1027,0 hPa 0,0 l/m 0 min 0 min 0 W/m 6,4 km/h (2 Bft) 97,87 %
25.04.2021 04:36 3,8 C 2,8 C 0,6 C 82 % 1027,0 hPa 0,0 l/m 0 min 0 min 0 W/m 6,4 km/h (2 Bft) 95,74 %
25.04.2021 04:38 3,8 C 2,8 C 0,6 C 82 % 1027,0 hPa 0,0 l/m 0 min 0 min 0 W/m 3,2 km/h (1 Bft) 95,74 %
25.04.2021 04:40 3,7 C 2,8 C 0,6 C 82 % 1027,0 hPa 0,0 l/m 0 min 0 min 0 W/m 6,4 km/h (2 Bft) 97,87 %
25.04.2021 04:42 3,7 C 2,8 C 0,6 C 82 % 1026,9 hPa 0,0 l/m 0 min 0 min 0 W/m 9,7 km/h (2 Bft) 97,87 %
25.04.2021 04:44 3,7 C 2,8 C 0,6 C 82 % 1027,0 hPa 0,0 l/m 0 min 0 min 0 W/m 6,4 km/h (2 Bft) 97,83 %
25.04.2021 04:46 3,6 C 2,8 C 0,6 C 83 % 1026,9 hPa 0,0 l/m 0 min 0 min 0 W/m 3,2 km/h (1 Bft) 95,74 %
25.04.2021 04:48 3,6 C 2,8 C 0,6 C 83 % 1026,9 hPa 0,0 l/m 0 min 0 min 0 W/m 0,0 km/h (0 Bft) 65,96 %
25.04.2021 04:50 3,6 C 2,8 C 0,6 C 83 % 1027,0 hPa 0,0 l/m 0 min 0 min 0 W/m 6,4 km/h (2 Bft) 81,08 %
25.04.2021 04:52 3,6 C 2,8 C 0,6 C 83 % 1026,9 hPa 0,0 l/m 0 min 0 min 0 W/m 6,4 km/h (2 Bft) 95,74 %
25.04.2021 04:54 3,6 C 2,8 C 0,6 C 83 % 1026,9 hPa 0,0 l/m 0 min 0 min 0 W/m 6,4 km/h (2 Bft) 97,83 %
25.04.2021 04:56 3,6 C 2,8 C 0,6 C 83 % 1027,0 hPa 0,0 l/m 0 min 0 min 0 W/m 9,7 km/h (2 Bft) 93,48 %
25.04.2021 04:58 3,5 C 2,8 C 0,6 C 83 % 1026,9 hPa 0,0 l/m 0 min 0 min 0 W/m 6,4 km/h (2 Bft) 95,74 %
25.04.2021 05:00 3,5 C 2,8 C 0,6 C 83 % 1027,0 hPa 0,0 l/m 0 min 0 min 0 W/m 6,4 km/h (2 Bft) 95,74 %
25.04.2021 05:02 3,5 C 2,8 C 0,6 C 83 % 1027,0 hPa 0,0 l/m 0 min 0 min 0 W/m 12,9 km/h (3 Bft) 95,74 %
25.04.2021 05:04 3,5 C 2,8 C 0,6 C 83 % 1027,0 hPa 0,0 l/m 0 min 0 min 0 W/m 3,2 km/h (1 Bft) 93,62 %
25.04.2021 05:06 3,5 C 2,8 C 0,6 C 83 % 1027,0 hPa 0,0 l/m 0 min 0 min 0 W/m 12,9 km/h (3 Bft) 95,74 %
25.04.2021 05:08 3,5 C 2,8 C 0,6 C 83 % 1026,9 hPa 0,0 l/m 0 min 0 min 0 W/m 6,4 km/h (2 Bft) 95,65 %
25.04.2021 05:10 3,5 C 2,8 C 0,6 C 83 % 1027,0 hPa 0,0 l/m 0 min 0 min 0 W/m 3,2 km/h (1 Bft) 95,74 %
25.04.2021 05:12 3,5 C 2,8 C 0,6 C 83 % 1027,0 hPa 0,0 l/m 0 min 0 min 0 W/m 6,4 km/h (2 Bft) 95,74 %
25.04.2021 05:14 3,5 C 2,8 C 0,6 C 83 % 1027,0 hPa 0,0 l/m 0 min 0 min 0 W/m 3,2 km/h (1 Bft) 95,74 %
25.04.2021 05:16 3,5 C 2,8 C 0,6 C 83 % 1026,9 hPa 0,0 l/m 0 min 0 min 0 W/m 3,2 km/h (1 Bft) 93,62 %
25.04.2021 05:18 3,4 C 2,8 C 0,6 C 83 % 1026,9 hPa 0,0 l/m 0 min 0 min 0 W/m 3,2 km/h (1 Bft) 95,74 %
25.04.2021 05:20 3,4 C 2,8 C 0,6 C 84 % 1026,8 hPa 0,0 l/m 0 min 0 min 0 W/m 3,2 km/h (1 Bft) 95,65 %
25.04.2021 05:22 3,4 C 2,8 C 0,6 C 84 % 1026,9 hPa 0,0 l/m 0 min 0 min 0 W/m 3,2 km/h (1 Bft) 95,74 %
25.04.2021 05:24 3,4 C 2,8 C 0,6 C 84 % 1026,8 hPa 0,0 l/m 0 min 0 min 0 W/m 3,2 km/h (1 Bft) 95,74 %
25.04.2021 05:26 3,4 C 2,8 C 0,6 C 84 % 1026,9 hPa 0,0 l/m 0 min 0 min 0 W/m 0,0 km/h (0 Bft) 97,87 %
25.04.2021 05:28 3,4 C 2,8 C 0,6 C 84 % 1026,9 hPa 0,0 l/m 0 min 0 min 0 W/m 3,2 km/h (1 Bft) 97,87 %
25.04.2021 05:30 3,4 C 2,8 C 0,6 C 84 % 1026,9 hPa 0,0 l/m 0 min 0 min 0 W/m 9,7 km/h (2 Bft) 97,83 %
25.04.2021 05:32 3,4 C 2,8 C 1,1 C 84 % 1026,9 hPa 0,0 l/m 0 min 0 min 0 W/m 3,2 km/h (1 Bft) 97,87 %
25.04.2021 05:34 3,4 C 2,8 C 1,1 C 84 % 1026,9 hPa 0,0 l/m 0 min 0 min 0 W/m 0,0 km/h (0 Bft) 97,87 %
25.04.2021 05:36 3,4 C 2,8 C 1,1 C 84 % 1027,0 hPa 0,0 l/m 0 min 0 min 0 W/m 6,4 km/h (2 Bft) 97,87 %
25.04.2021 05:38 3,4 C 2,8 C 1,1 C 84 % 1026,9 hPa 0,0 l/m 0 min 0 min 0 W/m 3,2 km/h (1 Bft) 97,87 %
25.04.2021 05:40 3,4 C 2,8 C 1,1 C 84 % 1026,9 hPa 0,0 l/m 0 min 0 min 0 W/m 3,2 km/h (1 Bft) 97,87 %
25.04.2021 05:42 3,5 C 2,8 C 1,1 C 84 % 1027,0 hPa 0,0 l/m 0 min 0 min 0 W/m 6,4 km/h (2 Bft) 97,83 %
25.04.2021 05:44 3,5 C 2,8 C 1,1 C 84 % 1027,0 hPa 0,0 l/m 0 min 0 min 0 W/m 6,4 km/h (2 Bft) 97,87 %
25.04.2021 05:46 3,5 C 2,8 C 1,1 C 84 % 1027,0 hPa 0,0 l/m 0 min 0 min 0 W/m 6,4 km/h (2 Bft) 97,87 %
25.04.2021 05:48 3,5 C 2,8 C 1,1 C 84 % 1027,0 hPa 0,0 l/m 0 min 0 min 0 W/m 6,4 km/h (2 Bft) 97,87 %
25.04.2021 05:50 3,5 C 2,8 C 1,1 C 84 % 1027,0 hPa 0,0 l/m 0 min 0 min 0 W/m 9,7 km/h (2 Bft) 97,87 %
25.04.2021 05:52 3,5 C 3,3 C 1,1 C 84 % 1026,9 hPa 0,0 l/m 0 min 0 min 0 W/m 6,4 km/h (2 Bft) 97,87 %
25.04.2021 05:54 3,5 C 3,3 C 1,1 C 84 % 1026,9 hPa 0,0 l/m 0 min 0 min 0 W/m 6,4 km/h (2 Bft) 97,83 %
25.04.2021 05:56 3,5 C 3,3 C 1,1 C 84 % 1026,9 hPa 0,0 l/m 0 min 0 min 0 W/m 6,4 km/h (2 Bft) 97,87 %
25.04.2021 05:58 3,5 C 3,3 C 1,1 C 84 % 1026,9 hPa 0,0 l/m 0 min 0 min 0 W/m 6,4 km/h (2 Bft) 97,87 %
25.04.2021 06:00 3,5 C 3,3 C 1,1 C 84 % 1026,9 hPa 0,0 l/m 0 min 0 min 0 W/m 3,2 km/h (1 Bft) 97,87 %
25.04.2021 06:02 3,5 C 3,3 C 1,1 C 84 % 1026,9 hPa 0,0 l/m 0 min 0 min 0 W/m 3,2 km/h (1 Bft) 95,74 %
25.04.2021 06:04 3,5 C 3,3 C 1,1 C 84 % 1026,9 hPa 0,0 l/m 0 min 0 min 0 W/m 0,0 km/h (0 Bft) 97,87 %
25.04.2021 06:08 3,5 C 2,8 C 1,1 C 84 % 1027,0 hPa 0,0 l/m 0 min 0 min 0 W/m 3,2 km/h (1 Bft) 98,92 %
25.04.2021 06:11 3,5 C 2,8 C 1,1 C 84 % 1027,0 hPa 0,0 l/m 0 min 0 min 0 W/m 3,2 km/h (1 Bft) 100,00 %
25.04.2021 06:12 3,5 C 2,8 C 1,1 C 84 % 1027,0 hPa 0,0 l/m 0 min 0 min 0 W/m 0,0 km/h (0 Bft) 95,65 %
25.04.2021 06:14 3,5 C 2,8 C 0,6 C 84 % 1027,0 hPa 0,0 l/m 0 min 0 min 0 W/m 3,2 km/h (1 Bft) 100,00 %
25.04.2021 06:16 3,5 C 2,8 C 0,6 C 84 % 1027,0 hPa 0,0 l/m 0 min 0 min 0 W/m 3,2 km/h (1 Bft) 100,00 %
25.04.2021 06:18 3,5 C 2,8 C 0,6 C 84 % 1027,0 hPa 0,0 l/m 0 min 0 min 0 W/m 6,4 km/h (2 Bft) 100,00 %
25.04.2021 06:20 3,5 C 2,8 C 0,6 C 84 % 1027,1 hPa 0,0 l/m 0 min 0 min 2 W/m 3,2 km/h (1 Bft) 100,00 %
25.04.2021 06:22 3,5 C 2,8 C 0,6 C 84 % 1027,0 hPa 0,0 l/m 0 min 0 min 5 W/m 3,2 km/h (1 Bft) 97,87 %
25.04.2021 06:24 3,5 C 2,8 C 0,6 C 84 % 1027,0 hPa 0,0 l/m 0 min 0 min 5 W/m 0,0 km/h (0 Bft) 100,00 %
25.04.2021 06:26 3,5 C 2,8 C 1,1 C 84 % 1027,0 hPa 0,0 l/m 0 min 0 min 5 W/m 0,0 km/h (0 Bft) 100,00 %
25.04.2021 06:28 3,5 C 2,8 C 1,1 C 84 % 1027,1 hPa 0,0 l/m 0 min 0 min 7 W/m 0,0 km/h (0 Bft) 100,00 %
25.04.2021 06:30 3,5 C 2,8 C 1,1 C 84 % 1027,1 hPa 0,0 l/m 0 min 0 min 8 W/m 3,2 km/h (1 Bft) 100,00 %
25.04.2021 06:32 3,5 C 2,8 C 1,1 C 84 % 1027,1 hPa 0,0 l/m 0 min 0 min 9 W/m 3,2 km/h (1 Bft) 97,87 %
25.04.2021 06:34 3,5 C 2,8 C 1,1 C 84 % 1027,1 hPa 0,0 l/m 0 min 0 min 11 W/m 3,2 km/h (1 Bft) 100,00 %
25.04.2021 06:36 3,4 C 2,8 C 1,1 C 84 % 1027,1 hPa 0,0 l/m 0 min 0 min 11 W/m 3,2 km/h (1 Bft) 97,87 %
25.04.2021 06:38 3,4 C 2,8 C 1,1 C 84 % 1027,1 hPa 0,0 l/m 0 min 0 min 12 W/m 3,2 km/h (1 Bft) 100,00 %
25.04.2021 06:40 3,4 C 2,8 C 1,1 C 84 % 1027,1 hPa 0,0 l/m 0 min 0 min 14 W/m 3,2 km/h (1 Bft) 100,00 %
25.04.2021 06:42 3,4 C 2,8 C 1,1 C 84 % 1027,0 hPa 0,0 l/m 0 min 0 min 16 W/m 3,2 km/h (1 Bft) 97,83 %
25.04.2021 06:44 3,4 C 3,3 C 1,1 C 84 % 1027,0 hPa 0,0 l/m 0 min 0 min 18 W/m 3,2 km/h (1 Bft) 100,00 %
25.04.2021 06:46 3,4 C 3,3 C 1,1 C 84 % 1027,0 hPa 0,0 l/m 0 min 0 min 19 W/m 3,2 km/h (1 Bft) 95,74 %
25.04.2021 06:48 3,4 C 3,3 C 1,1 C 84 % 1027,0 hPa 0,0 l/m 0 min 0 min 19 W/m 0,0 km/h (0 Bft) 100,00 %
25.04.2021 06:50 3,5 C 3,3 C 1,1 C 85 % 1027,0 hPa 0,0 l/m 0 min 0 min 20 W/m 3,2 km/h (1 Bft) 95,74 %
25.04.2021 06:52 3,5 C 3,3 C 1,1 C 84 % 1027,0 hPa 0,0 l/m 0 min 0 min 21 W/m 3,2 km/h (1 Bft) 95,74 %
25.04.2021 06:54 3,5 C 3,3 C 1,1 C 85 % 1027,0 hPa 0,0 l/m 0 min 0 min 21 W/m 3,2 km/h (1 Bft) 97,83 %
25.04.2021 06:56 3,5 C 3,3 C 1,1 C 85 % 1027,0 hPa 0,0 l/m 0 min 0 min 22 W/m 3,2 km/h (1 Bft) 97,87 %
25.04.2021 06:58 3,4 C 3,3 C 1,1 C 84 % 1027,0 hPa 0,0 l/m 0 min 0 min 23 W/m 6,4 km/h (2 Bft) 97,87 %
25.04.2021 07:00 3,4 C 3,3 C 1,1 C 84 % 1027,1 hPa 0,0 l/m 0 min 0 min 27 W/m 6,4 km/h (2 Bft) 100,00 %
25.04.2021 07:02 3,5 C 3,3 C 1,1 C 85 % 1027,1 hPa 0,0 l/m 0 min 0 min 34 W/m 9,7 km/h (2 Bft) 97,87 %
25.04.2021 07:04 3,5 C 3,3 C 1,1 C 85 % 1027,1 hPa 0,0 l/m 0 min 0 min 40 W/m 6,4 km/h (2 Bft) 97,83 %
25.04.2021 07:06 3,5 C 3,3 C 1,1 C 85 % 1027,1 hPa 0,0 l/m 0 min 0 min 42 W/m 3,2 km/h (1 Bft) 97,87 %
25.04.2021 07:08 3,5 C 3,3 C 1,1 C 84 % 1027,1 hPa 0,0 l/m 0 min 0 min 39 W/m 3,2 km/h (1 Bft) 97,87 %
25.04.2021 07:10 3,5 C 3,3 C 1,1 C 84 % 1027,1 hPa 0,0 l/m 0 min 0 min 38 W/m 12,9 km/h (3 Bft) 97,87 %
25.04.2021 07:12 3,6 C 3,9 C 1,7 C 84 % 1027,1 hPa 0,0 l/m 0 min 0 min 35 W/m 3,2 km/h (1 Bft) 97,87 %
25.04.2021 07:14 3,6 C 3,9 C 1,7 C 84 % 1027,1 hPa 0,0 l/m 0 min 0 min 35 W/m 6,4 km/h (2 Bft) 97,87 %
25.04.2021 07:16 3,6 C 3,9 C 1,7 C 84 % 1027,1 hPa 0,0 l/m 0 min 0 min 35 W/m 3,2 km/h (1 Bft) 95,65 %
25.04.2021 07:18 3,7 C 3,9 C 1,7 C 84 % 1027,1 hPa 0,0 l/m 0 min 0 min 34 W/m 3,2 km/h (1 Bft) 93,62 %
25.04.2021 07:20 3,8 C 3,9 C 1,7 C 84 % 1027,2 hPa 0,0 l/m 0 min 0 min 35 W/m 12,9 km/h (3 Bft) 95,74 %
25.04.2021 07:22 3,8 C 3,9 C 1,7 C 84 % 1027,2 hPa 0,0 l/m 0 min 0 min 37 W/m 6,4 km/h (2 Bft) 95,74 %
25.04.2021 07:24 3,9 C 3,9 C 1,7 C 83 % 1027,2 hPa 0,0 l/m 0 min 0 min 39 W/m 3,2 km/h (1 Bft) 95,74 %
25.04.2021 07:26 3,9 C 3,9 C 1,7 C 83 % 1027,2 hPa 0,0 l/m 0 min 0 min 40 W/m 6,4 km/h (2 Bft) 97,87 %
25.04.2021 07:28 3,9 C 4,4 C 1,7 C 83 % 1027,2 hPa 0,0 l/m 0 min 0 min 41 W/m 6,4 km/h (2 Bft) 93,48 %
25.04.2021 07:30 4,0 C 4,4 C 2,3 C 83 % 1027,3 hPa 0,0 l/m 0 min 0 min 43 W/m 12,9 km/h (3 Bft) 97,87 %
25.04.2021 07:32 4,0 C 4,4 C 2,3 C 82 % 1027,2 hPa 0,0 l/m 0 min 0 min 44 W/m 6,4 km/h (2 Bft) 97,87 %
25.04.2021 07:34 4,1 C 4,4 C 2,3 C 82 % 1027,3 hPa 0,0 l/m 0 min 0 min 47 W/m 6,4 km/h (2 Bft) 97,87 %
25.04.2021 07:36 4,1 C 4,4 C 2,3 C 82 % 1027,3 hPa 0,0 l/m 0 min 0 min 49 W/m 9,7 km/h (2 Bft) 97,87 %
25.04.2021 07:38 4,2 C 4,4 C 2,3 C 82 % 1027,3 hPa 0,0 l/m 0 min 0 min 49 W/m 3,2 km/h (1 Bft) 97,87 %
25.04.2021 07:40 4,3 C 4,4 C 2,3 C 82 % 1027,3 hPa 0,0 l/m 0 min 0 min 49 W/m 6,4 km/h (2 Bft) 97,83 %
25.04.2021 07:42 4,3 C 4,4 C 2,3 C 81 % 1027,3 hPa 0,0 l/m 0 min 0 min 51 W/m 12,9 km/h (3 Bft) 97,87 %
25.04.2021 07:44 4,3 C 4,4 C 2,3 C 81 % 1027,3 hPa 0,0 l/m 0 min 0 min 55 W/m 9,7 km/h (2 Bft) 97,87 %
25.04.2021 07:46 4,4 C 4,4 C 2,3 C 80 % 1027,3 hPa 0,0 l/m 0 min 0 min 57 W/m 6,4 km/h (2 Bft) 95,74 %
25.04.2021 07:48 4,4 C 4,4 C 2,3 C 80 % 1027,4 hPa 0,0 l/m 0 min 0 min 60 W/m 9,7 km/h (2 Bft) 95,74 %
25.04.2021 07:50 4,5 C 5,0 C 2,3 C 80 % 1027,4 hPa 0,0 l/m 0 min 0 min 61 W/m 9,7 km/h (2 Bft) 97,87 %
25.04.2021 07:52 4,5 C 5,0 C 2,3 C 79 % 1027,4 hPa 0,0 l/m 0 min 0 min 62 W/m 3,2 km/h (1 Bft) 95,65 %
25.04.2021 07:54 4,6 C 5,0 C 2,3 C 79 % 1027,4 hPa 0,0 l/m 0 min 0 min 61 W/m 9,7 km/h (2 Bft) 97,87 %
25.04.2021 07:56 4,6 C 5,0 C 2,3 C 79 % 1027,5 hPa 0,0 l/m 0 min 0 min 62 W/m 6,4 km/h (2 Bft) 95,74 %
25.04.2021 07:58 4,6 C 5,0 C 2,3 C 79 % 1027,5 hPa 0,0 l/m 0 min 0 min 66 W/m 9,7 km/h (2 Bft) 97,87 %
25.04.2021 08:00 4,7 C 5,0 C 2,3 C 79 % 1027,4 hPa 0,0 l/m 0 min 0 min 69 W/m 9,7 km/h (2 Bft) 97,87 %
25.04.2021 08:02 4,7 C 5,0 C 2,8 C 78 % 1027,5 hPa 0,0 l/m 0 min 0 min 73 W/m 9,7 km/h (2 Bft) 95,74 %
25.04.2021 08:04 4,8 C 5,0 C 2,8 C 79 % 1027,5 hPa 0,0 l/m 0 min 0 min 76 W/m 6,4 km/h (2 Bft) 97,83 %
25.04.2021 08:06 4,9 C 5,0 C 2,8 C 79 % 1027,6 hPa 0,0 l/m 0 min 0 min 74 W/m 6,4 km/h (2 Bft) 97,87 %
25.04.2021 08:08 4,9 C 5,0 C 2,8 C 78 % 1027,6 hPa 0,0 l/m 0 min 0 min 74 W/m 3,2 km/h (1 Bft) 97,87 %
25.04.2021 08:10 4,9 C 5,0 C 2,8 C 78 % 1027,6 hPa 0,0 l/m 0 min 0 min 77 W/m 3,2 km/h (1 Bft) 100,00 %
25.04.2021 08:12 4,9 C 5,0 C 2,8 C 78 % 1027,6 hPa 0,0 l/m 0 min 0 min 79 W/m 6,4 km/h (2 Bft) 95,74 %
25.04.2021 08:14 5,0 C 5,6 C 2,8 C 78 % 1027,6 hPa 0,0 l/m 0 min 0 min 80 W/m 6,4 km/h (2 Bft) 100,00 %
25.04.2021 08:16 5,0 C 5,6 C 2,8 C 78 % 1027,6 hPa 0,0 l/m 0 min 0 min 82 W/m 16,1 km/h (3 Bft) 100,00 %
25.04.2021 08:18 5,0 C 5,6 C 2,8 C 78 % 1027,6 hPa 0,0 l/m 0 min 0 min 83 W/m 6,4 km/h (2 Bft) 97,87 %
25.04.2021 08:20 5,1 C 5,6 C 2,8 C 78 % 1027,6 hPa 0,0 l/m 0 min 0 min 86 W/m 6,4 km/h (2 Bft) 100,00 %
25.04.2021 08:22 5,1 C 5,6 C 2,8 C 77 % 1027,6 hPa 0,0 l/m 0 min 0 min 90 W/m 9,7 km/h (2 Bft) 100,00 %
25.04.2021 08:24 5,1 C 5,6 C 2,8 C 77 % 1027,7 hPa 0,0 l/m 0 min 0 min 96 W/m 9,7 km/h (2 Bft) 100,00 %
25.04.2021 08:26 5,1 C 5,6 C 2,8 C 77 % 1027,6 hPa 0,0 l/m 0 min 0 min 100 W/m 3,2 km/h (1 Bft) 100,00 %
25.04.2021 08:28 5,1 C 5,6 C 2,8 C 77 % 1027,6 hPa 0,0 l/m 0 min 0 min 100 W/m 3,2 km/h (1 Bft) 97,83 %
25.04.2021 08:30 5,2 C 5,6 C 2,8 C 77 % 1027,6 hPa 0,0 l/m 0 min 0 min 99 W/m 3,2 km/h (1 Bft) 100,00 %
25.04.2021 08:32 5,3 C 5,6 C 3,4 C 77 % 1027,7 hPa 0,0 l/m 0 min 0 min 102 W/m 9,7 km/h (2 Bft) 97,87 %
25.04.2021 08:34 5,3 C 5,6 C 3,4 C 77 % 1027,6 hPa 0,0 l/m 0 min 0 min 104 W/m 6,4 km/h (2 Bft) 97,87 %
25.04.2021 08:36 5,3 C 5,6 C 3,4 C 76 % 1027,7 hPa 0,0 l/m 0 min 0 min 106 W/m 6,4 km/h (2 Bft) 97,87 %
25.04.2021 08:38 5,4 C 5,6 C 3,4 C 76 % 1027,7 hPa 0,0 l/m 0 min 0 min 109 W/m 3,2 km/h (1 Bft) 100,00 %
25.04.2021 08:40 5,4 C 6,1 C 3,4 C 76 % 1027,6 hPa 0,0 l/m 0 min 0 min 109 W/m 6,4 km/h (2 Bft) 100,00 %
25.04.2021 08:42 5,5 C 6,1 C 3,4 C 76 % 1027,6 hPa 0,0 l/m 0 min 0 min 109 W/m 6,4 km/h (2 Bft) 100,00 %
25.04.2021 08:44 5,5 C 6,1 C 3,4 C 76 % 1027,6 hPa 0,0 l/m 0 min 0 min 109 W/m 16,1 km/h (3 Bft) 100,00 %
25.04.2021 08:46 5,5 C 6,1 C 3,4 C 76 % 1027,7 hPa 0,0 l/m 0 min 0 min 112 W/m 12,9 km/h (3 Bft) 100,00 %
25.04.2021 08:48 5,6 C 6,1 C 3,4 C 76 % 1027,7 hPa 0,0 l/m 0 min 0 min 113 W/m 6,4 km/h (2 Bft) 100,00 %
25.04.2021 08:50 5,6 C 6,1 C 3,4 C 76 % 1027,7 hPa 0,0 l/m 0 min 0 min 116 W/m 9,7 km/h (2 Bft) 97,87 %
25.04.2021 08:52 5,6 C 5,6 C 3,4 C 76 % 1027,7 hPa 0,0 l/m 0 min 0 min 123 W/m 19,3 km/h (3 Bft) 100,00 %
25.04.2021 08:54 5,6 C 6,1 C 3,4 C 76 % 1027,7 hPa 0,0 l/m 0 min 0 min 129 W/m 9,7 km/h (2 Bft) 97,87 %
25.04.2021 08:56 5,6 C 6,1 C 3,4 C 76 % 1027,7 hPa 0,0 l/m 0 min 0 min 132 W/m 9,7 km/h (2 Bft) 100,00 %
25.04.2021 08:58 5,6 C 6,1 C 3,4 C 75 % 1027,7 hPa 0,0 l/m 0 min 0 min 133 W/m 6,4 km/h (2 Bft) 100,00 %
25.04.2021 09:00 5,6 C 6,1 C 3,4 C 75 % 1027,8 hPa 0,0 l/m 0 min 0 min 136 W/m 12,9 km/h (3 Bft) 100,00 %
25.04.2021 09:02 5,6 C 6,1 C 3,4 C 75 % 1027,8 hPa 0,0 l/m 0 min 0 min 139 W/m 12,9 km/h (3 Bft) 95,74 %
25.04.2021 09:04 5,6 C 6,1 C 3,4 C 75 % 1027,8 hPa 0,0 l/m 0 min 0 min 144 W/m 9,7 km/h (2 Bft) 100,00 %
25.04.2021 09:06 5,7 C 6,1 C 3,4 C 75 % 1027,8 hPa 0,0 l/m 0 min 0 min 146 W/m 9,7 km/h (2 Bft) 97,87 %
25.04.2021 09:08 5,8 C 6,1 C 3,4 C 74 % 1027,8 hPa 0,0 l/m 0 min 0 min 145 W/m 12,9 km/h (3 Bft) 100,00 %
25.04.2021 09:10 5,8 C 6,1 C 3,9 C 74 % 1027,8 hPa 0,0 l/m 0 min 0 min 148 W/m 3,2 km/h (1 Bft) 100,00 %
25.04.2021 09:12 5,8 C 6,7 C 3,9 C 74 % 1027,8 hPa 0,0 l/m 0 min 0 min 153 W/m 6,4 km/h (2 Bft) 97,87 %
25.04.2021 09:14 5,9 C 6,7 C 3,9 C 75 % 1027,8 hPa 0,0 l/m 0 min 0 min 183 W/m 6,4 km/h (2 Bft) 100,00 %
25.04.2021 09:16 5,9 C 6,7 C 3,9 C 74 % 1027,8 hPa 0,0 l/m 2 min 0 min 277 W/m 12,9 km/h (3 Bft) 100,00 %
25.04.2021 09:18 5,9 C 6,7 C 3,9 C 74 % 1027,8 hPa 0,0 l/m 0 min 0 min 144 W/m 12,9 km/h (3 Bft) 97,87 %
25.04.2021 09:20 6,0 C 6,7 C 3,9 C 74 % 1027,8 hPa 0,0 l/m 0 min 0 min 138 W/m 9,7 km/h (2 Bft) 97,87 %
25.04.2021 09:22 6,0 C 6,7 C 3,9 C 73 % 1027,8 hPa 0,0 l/m 0 min 0 min 135 W/m 9,7 km/h (2 Bft) 97,87 %
25.04.2021 09:24 6,0 C 6,7 C 3,9 C 74 % 1027,9 hPa 0,0 l/m 0 min 0 min 135 W/m 3,2 km/h (1 Bft) 97,87 %
25.04.2021 09:26 6,0 C 6,7 C 3,9 C 74 % 1027,9 hPa 0,0 l/m 0 min 0 min 145 W/m 6,4 km/h (2 Bft) 97,83 %
25.04.2021 09:28 6,1 C 6,7 C 3,9 C 74 % 1027,9 hPa 0,0 l/m 0 min 0 min 149 W/m 6,4 km/h (2 Bft) 97,87 %
25.04.2021 09:30 6,1 C 6,7 C 3,9 C 73 % 1027,9 hPa 0,0 l/m 0 min 0 min 143 W/m 9,7 km/h (2 Bft) 97,87 %
25.04.2021 09:32 6,1 C 6,7 C 3,9 C 73 % 1027,9 hPa 0,0 l/m 0 min 0 min 136 W/m 16,1 km/h (3 Bft) 97,87 %
25.04.2021 09:34 6,1 C 6,7 C 3,9 C 74 % 1027,9 hPa 0,0 l/m 0 min 0 min 133 W/m 9,7 km/h (2 Bft) 95,74 %
25.04.2021 09:36 6,1 C 6,1 C 3,9 C 74 % 1027,9 hPa 0,0 l/m 0 min 0 min 132 W/m 22,5 km/h (4 Bft) 97,87 %
25.04.2021 09:38 6,1 C 6,1 C 3,9 C 74 % 1027,9 hPa 0,0 l/m 0 min 0 min 132 W/m 19,3 km/h (3 Bft) 97,83 %
25.04.2021 09:40 6,1 C 6,1 C 3,4 C 74 % 1027,9 hPa 0,0 l/m 0 min 0 min 130 W/m 16,1 km/h (3 Bft) 97,87 %
25.04.2021 09:42 6,1 C 6,1 C 3,9 C 74 % 1027,9 hPa 0,0 l/m 0 min 0 min 137 W/m 9,7 km/h (2 Bft) 95,74 %
25.04.2021 09:44 6,1 C 6,7 C 3,9 C 75 % 1027,9 hPa 0,0 l/m 0 min 0 min 147 W/m 12,9 km/h (3 Bft) 95,74 %
25.04.2021 09:46 6,1 C 6,1 C 3,9 C 74 % 1027,9 hPa 0,0 l/m 0 min 0 min 156 W/m 16,1 km/h (3 Bft) 95,74 %
25.04.2021 09:48 6,0 C 6,1 C 3,4 C 74 % 1027,9 hPa 0,0 l/m 0 min 0 min 162 W/m 16,1 km/h (3 Bft) 95,74 %
25.04.2021 09:50 6,0 C 6,1 C 3,9 C 74 % 1027,9 hPa 0,0 l/m 0 min 0 min 168 W/m 19,3 km/h (3 Bft) 95,65 %
25.04.2021 09:52 6,0 C 6,1 C 3,9 C 74 % 1027,9 hPa 0,0 l/m 0 min 0 min 170 W/m 16,1 km/h (3 Bft) 95,74 %
25.04.2021 09:54 6,0 C 6,7 C 3,9 C 74 % 1027,9 hPa 0,0 l/m 0 min 0 min 171 W/m 16,1 km/h (3 Bft) 95,74 %
25.04.2021 09:56 6,1 C 6,7 C 3,9 C 74 % 1027,9 hPa 0,0 l/m 0 min 0 min 171 W/m 22,5 km/h (4 Bft) 95,74 %
25.04.2021 09:58 6,1 C 6,7 C 3,9 C 73 % 1027,9 hPa 0,0 l/m 0 min 0 min 168 W/m 12,9 km/h (3 Bft) 93,62 %
25.04.2021 10:00 6,1 C 6,7 C 3,9 C 73 % 1027,9 hPa 0,0 l/m 0 min 0 min 169 W/m 22,5 km/h (4 Bft) 95,74 %
25.04.2021 10:02 6,1 C 6,7 C 3,9 C 73 % 1027,9 hPa 0,0 l/m 0 min 0 min 179 W/m 19,3 km/h (3 Bft) 93,48 %
25.04.2021 10:04 6,1 C 6,7 C 3,9 C 73 % 1027,9 hPa 0,0 l/m 0 min 0 min 196 W/m 12,9 km/h (3 Bft) 95,74 %
25.04.2021 10:06 6,1 C 6,7 C 3,9 C 73 % 1027,9 hPa 0,0 l/m 0 min 0 min 207 W/m 6,4 km/h (2 Bft) 97,87 %
25.04.2021 10:08 6,2 C 7,2 C 3,9 C 73 % 1027,9 hPa 0,0 l/m 0 min 0 min 209 W/m 16,1 km/h (3 Bft) 97,92 %
25.04.2021 10:10 6,2 C 7,2 C 3,9 C 73 % 1027,9 hPa 0,0 l/m 0 min 0 min 225 W/m 22,5 km/h (4 Bft) 97,87 %
25.04.2021 10:12 6,3 C 7,2 C 4,5 C 73 % 1027,9 hPa 0,0 l/m 0 min 0 min 261 W/m 9,7 km/h (2 Bft) 97,87 %
25.04.2021 10:14 6,4 C 7,2 C 4,5 C 74 % 1027,9 hPa 0,0 l/m 0 min 0 min 280 W/m 19,3 km/h (3 Bft) 93,48 %
25.04.2021 10:16 6,4 C 7,8 C 5,0 C 73 % 1028,0 hPa 0,0 l/m 2 min 0 min 286 W/m 12,9 km/h (3 Bft) 95,74 %
25.04.2021 10:18 6,4 C 7,8 C 5,0 C 73 % 1028,0 hPa 0,0 l/m 2 min 0 min 300 W/m 19,3 km/h (3 Bft) 93,62 %
25.04.2021 10:20 6,5 C 8,3 C 5,6 C 73 % 1028,0 hPa 0,0 l/m 2 min 0 min 401 W/m 12,9 km/h (3 Bft) 93,62 %
25.04.2021 10:22 6,5 C 7,8 C 5,0 C 72 % 1027,9 hPa 0,0 l/m 0 min 0 min 271 W/m 16,1 km/h (3 Bft) 93,62 %
25.04.2021 10:24 6,6 C 7,8 C 5,0 C 72 % 1027,9 hPa 0,0 l/m 0 min 0 min 265 W/m 9,7 km/h (2 Bft) 95,74 %
25.04.2021 10:26 6,6 C 7,8 C 5,0 C 72 % 1027,9 hPa 0,0 l/m 0 min 0 min 266 W/m 19,3 km/h (3 Bft) 93,48 %
25.04.2021 10:28 6,6 C 7,8 C 5,0 C 71 % 1028,0 hPa 0,0 l/m 0 min 0 min 268 W/m 22,5 km/h (4 Bft) 95,74 %
25.04.2021 10:30 6,7 C 7,8 C 5,0 C 71 % 1027,9 hPa 0,0 l/m 0 min 0 min 272 W/m 16,1 km/h (3 Bft) 95,74 %
25.04.2021 10:32 6,8 C 7,8 C 5,0 C 71 % 1028,0 hPa 0,0 l/m 0 min 0 min 271 W/m 19,3 km/h (3 Bft) 95,74 %
25.04.2021 10:34 6,7 C 7,8 C 5,0 C 70 % 1027,9 hPa 0,0 l/m 0 min 0 min 267 W/m 16,1 km/h (3 Bft) 95,74 %
25.04.2021 10:36 6,8 C 7,8 C 5,0 C 70 % 1028,0 hPa 0,0 l/m 0 min 0 min 261 W/m 19,3 km/h (3 Bft) 95,74 %
25.04.2021 10:38 6,8 C 7,8 C 5,0 C 69 % 1027,9 hPa 0,0 l/m 0 min 0 min 278 W/m 19,3 km/h (3 Bft) 93,48 %
25.04.2021 10:40 6,8 C 7,8 C 5,0 C 70 % 1027,9 hPa 0,0 l/m 0 min 0 min 294 W/m 12,9 km/h (3 Bft) 95,74 %
25.04.2021 10:42 6,9 C 8,3 C 5,0 C 70 % 1027,9 hPa 0,0 l/m 2 min 0 min 314 W/m 29,0 km/h (5 Bft) 95,74 %
25.04.2021 10:44 6,9 C 8,3 C 5,6 C 70 % 1028,0 hPa 0,0 l/m 0 min 0 min 301 W/m 9,7 km/h (2 Bft) 95,74 %
25.04.2021 10:46 7,0 C 8,9 C 5,6 C 70 % 1028,0 hPa 0,0 l/m 0 min 0 min 288 W/m 16,1 km/h (3 Bft) 97,87 %
25.04.2021 10:48 7,0 C 8,3 C 5,6 C 68 % 1028,0 hPa 0,0 l/m 0 min 0 min 271 W/m 22,5 km/h (4 Bft) 97,87 %
25.04.2021 10:50 6,9 C 7,8 C 5,0 C 68 % 1028,0 hPa 0,0 l/m 0 min 0 min 261 W/m 29,0 km/h (5 Bft) 93,48 %
25.04.2021 10:52 6,9 C 7,8 C 5,6 C 68 % 1028,1 hPa 0,0 l/m 0 min 0 min 311 W/m 19,3 km/h (3 Bft) 97,87 %
25.04.2021 10:54 6,8 C 7,8 C 5,6 C 68 % 1028,0 hPa 0,0 l/m 0 min 0 min 274 W/m 9,7 km/h (2 Bft) 95,74 %
25.04.2021 10:56 6,8 C 7,8 C 5,6 C 68 % 1028,0 hPa 0,0 l/m 0 min 0 min 301 W/m 6,4 km/h (2 Bft) 95,74 %
25.04.2021 10:58 6,9 C 8,9 C 8,4 C 69 % 1028,0 hPa 0,0 l/m 2 min 0 min 529 W/m 16,1 km/h (3 Bft) 100,00 %
25.04.2021 11:00 7,0 C 9,4 C 8,9 C 68 % 1028,0 hPa 0,0 l/m 2 min 0 min 671 W/m 19,3 km/h (3 Bft) 100,00 %
25.04.2021 11:02 7,2 C 10,6 C 8,9 C 68 % 1028,0 hPa 0,0 l/m 2 min 0 min 721 W/m 16,1 km/h (3 Bft) 97,87 %
25.04.2021 11:04 7,4 C 10,6 C 8,4 C 68 % 1027,9 hPa 0,0 l/m 2 min 0 min 723 W/m 16,1 km/h (3 Bft) 95,74 %
25.04.2021 11:06 7,4 C 10,6 C 7,3 C 67 % 1028,0 hPa 0,0 l/m 2 min 0 min 736 W/m 16,1 km/h (3 Bft) 100,00 %
25.04.2021 11:08 7,5 C 10,6 C 7,3 C 67 % 1028,0 hPa 0,0 l/m 2 min 0 min 746 W/m 19,3 km/h (3 Bft) 97,87 %
25.04.2021 11:10 7,6 C 10,6 C 7,8 C 67 % 1028,0 hPa 0,0 l/m 2 min 0 min 760 W/m 12,9 km/h (3 Bft) 100,00 %
25.04.2021 11:12 7,6 C 11,1 C 7,8 C 68 % 1027,9 hPa 0,0 l/m 2 min 0 min 768 W/m 12,9 km/h (3 Bft) 100,00 %
25.04.2021 11:14 7,8 C 11,7 C 7,8 C 68 % 1027,9 hPa 0,0 l/m 2 min 0 min 763 W/m 25,7 km/h (4 Bft) 100,00 %
25.04.2021 11:16 7,9 C 11,1 C 7,8 C 67 % 1027,9 hPa 0,0 l/m 2 min 0 min 779 W/m 25,7 km/h (4 Bft) 97,87 %
25.04.2021 11:18 8,1 C 11,7 C 7,3 C 68 % 1027,9 hPa 0,0 l/m 2 min 0 min 781 W/m 12,9 km/h (3 Bft) 100,00 %
25.04.2021 11:20 8,3 C 11,7 C 7,3 C 66 % 1027,8 hPa 0,0 l/m 2 min 0 min 776 W/m 25,7 km/h (4 Bft) 100,00 %
25.04.2021 11:22 8,3 C 11,7 C 6,7 C 65 % 1027,9 hPa 0,0 l/m 2 min 0 min 786 W/m 19,3 km/h (3 Bft) 97,87 %
25.04.2021 11:24 8,4 C 12,2 C 7,3 C 66 % 1027,8 hPa 0,0 l/m 2 min 0 min 800 W/m 25,7 km/h (4 Bft) 95,65 %
25.04.2021 11:26 8,4 C 12,2 C 7,3 C 66 % 1027,9 hPa 0,0 l/m 2 min 0 min 807 W/m 19,3 km/h (3 Bft) 100,00 %
25.04.2021 11:28 8,5 C 11,7 C 7,3 C 65 % 1027,8 hPa 0,0 l/m 2 min 0 min 783 W/m 19,3 km/h (3 Bft) 100,00 %
25.04.2021 11:30 8,6 C 12,8 C 7,3 C 65 % 1027,8 hPa 0,0 l/m 2 min 0 min 812 W/m 12,9 km/h (3 Bft) 100,00 %
25.04.2021 11:32 8,8 C 13,3 C 7,3 C 65 % 1027,8 hPa 0,0 l/m 2 min 0 min 835 W/m 12,9 km/h (3 Bft) 100,00 %
25.04.2021 11:34 8,9 C 13,9 C 8,4 C 65 % 1027,7 hPa 0,0 l/m 2 min 0 min 838 W/m 12,9 km/h (3 Bft) 100,00 %
25.04.2021 11:36 9,1 C 14,4 C 8,4 C 66 % 1027,7 hPa 0,0 l/m 2 min 0 min 851 W/m 12,9 km/h (3 Bft) 100,00 %
25.04.2021 11:38 9,3 C 14,4 C 8,4 C 65 % 1027,7 hPa 0,0 l/m 2 min 0 min 858 W/m 22,5 km/h (4 Bft) 100,00 %
25.04.2021 11:40 9,3 C 13,9 C 8,4 C 65 % 1027,7 hPa 0,0 l/m 2 min 0 min 838 W/m 16,1 km/h (3 Bft) 53,49 %
25.04.2021 11:42 9,4 C 13,9 C 8,4 C 64 % 1027,8 hPa 0,0 l/m 2 min 0 min 824 W/m 12,9 km/h (3 Bft) 100,00 %
25.04.2021 11:44 9,4 C 13,9 C 9,5 C 63 % 1027,8 hPa 0,0 l/m 2 min 0 min 820 W/m 9,7 km/h (2 Bft) 100,00 %
25.04.2021 11:46 9,5 C 13,3 C 10,0 C 63 % 1027,7 hPa 0,0 l/m 2 min 0 min 823 W/m 12,9 km/h (3 Bft) 97,87 %
25.04.2021 11:48 9,6 C 13,3 C 11,1 C 63 % 1027,6 hPa 0,0 l/m 2 min 0 min 830 W/m 12,9 km/h (3 Bft) 100,00 %
25.04.2021 11:50 9,7 C 13,3 C 10,6 C 62 % 1027,7 hPa 0,0 l/m 2 min 0 min 831 W/m 12,9 km/h (3 Bft) 100,00 %
25.04.2021 11:52 9,8 C 12,8 C 10,0 C 61 % 1027,6 hPa 0,0 l/m 2 min 0 min 861 W/m 19,3 km/h (3 Bft) 100,00 %
25.04.2021 11:54 9,8 C 12,2 C 10,0 C 62 % 1027,7 hPa 0,0 l/m 2 min 0 min 886 W/m 12,9 km/h (3 Bft) 100,00 %
25.04.2021 11:56 9,9 C 12,8 C 10,6 C 62 % 1027,6 hPa 0,0 l/m 2 min 0 min 893 W/m 19,3 km/h (3 Bft) 100,00 %
25.04.2021 11:58 10,1 C 13,9 C 12,3 C 62 % 1027,6 hPa 0,0 l/m 2 min 0 min 918 W/m 12,9 km/h (3 Bft) 97,87 %
25.04.2021 12:00 10,2 C 13,3 C 11,1 C 61 % 1027,7 hPa 0,0 l/m 2 min 0 min 900 W/m 16,1 km/h (3 Bft) 100,00 %
25.04.2021 12:02 10,2 C 13,9 C 12,3 C 61 % 1027,6 hPa 0,0 l/m 2 min 0 min 900 W/m 16,1 km/h (3 Bft) 100,00 %
25.04.2021 12:04 10,2 C 13,3 C 12,3 C 60 % 1027,6 hPa 0,0 l/m 2 min 0 min 900 W/m 12,9 km/h (3 Bft) 97,87 %
25.04.2021 12:08 10,1 C 12,8 C 12,8 C 60 % 1027,6 hPa 0,0 l/m 4 min 0 min 696 W/m 25,7 km/h (4 Bft) 100,00 %
25.04.2021 12:10 10,1 C 13,3 C 13,4 C 60 % 1027,6 hPa 0,0 l/m 2 min 0 min 857 W/m 16,1 km/h (3 Bft) 100,00 %
25.04.2021 12:12 10,1 C 12,8 C 11,7 C 60 % 1027,7 hPa 0,0 l/m 2 min 0 min 856 W/m 22,5 km/h (4 Bft) 100,00 %
25.04.2021 12:14 10,1 C 12,8 C 11,1 C 59 % 1027,6 hPa 0,0 l/m 2 min 0 min 856 W/m 19,3 km/h (3 Bft) 100,00 %
25.04.2021 12:16 10,1 C 12,8 C 11,1 C 59 % 1027,6 hPa 0,0 l/m 2 min 0 min 856 W/m 22,5 km/h (4 Bft) 100,00 %
25.04.2021 12:18 10,0 C 13,3 C 12,3 C 60 % 1027,7 hPa 0,0 l/m 2 min 0 min 879 W/m 25,7 km/h (4 Bft) 100,00 %
25.04.2021 12:20 10,1 C 13,9 C 13,9 C 61 % 1027,7 hPa 0,0 l/m 2 min 0 min 884 W/m 19,3 km/h (3 Bft) 100,00 %
25.04.2021 12:22 10,1 C 14,4 C 14,5 C 60 % 1027,5 hPa 0,0 l/m 2 min 0 min 879 W/m 12,9 km/h (3 Bft) 100,00 %
25.04.2021 12:24 10,2 C 15,0 C 15,6 C 61 % 1027,5 hPa 0,0 l/m 2 min 0 min 852 W/m 22,5 km/h (4 Bft) 100,00 %
25.04.2021 12:26 10,3 C 15,0 C 15,0 C 60 % 1027,5 hPa 0,0 l/m 2 min 0 min 870 W/m 9,7 km/h (2 Bft) 100,00 %
25.04.2021 12:28 10,5 C 15,6 C 16,1 C 61 % 1027,5 hPa 0,0 l/m 2 min 0 min 865 W/m 12,9 km/h (3 Bft) 100,00 %
25.04.2021 12:30 10,6 C 16,1 C 16,1 C 60 % 1027,4 hPa 0,0 l/m 2 min 0 min 864 W/m 9,7 km/h (2 Bft) 100,00 %
25.04.2021 12:32 10,6 C 16,7 C 17,8 C 60 % 1027,5 hPa 0,0 l/m 2 min 0 min 898 W/m 6,4 km/h (2 Bft) 100,00 %
25.04.2021 12:34 10,6 C 16,1 C 16,7 C 59 % 1027,4 hPa 0,0 l/m 2 min 0 min 937 W/m 19,3 km/h (3 Bft) 100,00 %
25.04.2021 12:36 10,6 C 15,0 C 15,0 C 60 % 1027,4 hPa 0,0 l/m 2 min 0 min 944 W/m 32,2 km/h (5 Bft) 100,00 %
25.04.2021 12:38 10,6 C 14,4 C 14,5 C 59 % 1027,4 hPa 0,0 l/m 2 min 0 min 691 W/m 25,7 km/h (4 Bft) 100,00 %
25.04.2021 12:40 10,6 C 15,0 C 15,6 C 60 % 1027,4 hPa 0,0 l/m 2 min 0 min 806 W/m 16,1 km/h (3 Bft) 100,00 %
25.04.2021 12:42 10,6 C 14,4 C 17,3 C 60 % 1027,4 hPa 0,0 l/m 2 min 0 min 854 W/m 9,7 km/h (2 Bft) 100,00 %
25.04.2021 12:44 10,7 C 15,6 C 16,7 C 60 % 1027,3 hPa 0,0 l/m 2 min 0 min 857 W/m 12,9 km/h (3 Bft) 100,00 %
25.04.2021 12:46 10,8 C 15,6 C 16,7 C 60 % 1027,3 hPa 0,0 l/m 2 min 0 min 872 W/m 19,3 km/h (3 Bft) 100,00 %
25.04.2021 12:48 10,8 C 15,6 C 17,3 C 60 % 1027,3 hPa 0,0 l/m 2 min 0 min 865 W/m 12,9 km/h (3 Bft) 100,00 %
25.04.2021 12:50 11,0 C 15,6 C 18,4 C 59 % 1027,3 hPa 0,0 l/m 2 min 0 min 881 W/m 16,1 km/h (3 Bft) 100,00 %
25.04.2021 12:52 11,1 C 15,6 C 18,9 C 58 % 1027,2 hPa 0,0 l/m 2 min 0 min 863 W/m 12,9 km/h (3 Bft) 100,00 %
25.04.2021 12:54 11,2 C 15,6 C 17,8 C 58 % 1027,2 hPa 0,0 l/m 2 min 0 min 877 W/m 19,3 km/h (3 Bft) 100,00 %
25.04.2021 12:56 11,2 C 15,6 C 17,8 C 58 % 1027,2 hPa 0,0 l/m 2 min 0 min 874 W/m 12,9 km/h (3 Bft) 100,00 %
25.04.2021 12:58 11,3 C 15,6 C 17,8 C 58 % 1027,2 hPa 0,0 l/m 2 min 0 min 878 W/m 16,1 km/h (3 Bft) 95,74 %
25.04.2021 13:00 11,3 C 16,1 C 17,8 C 58 % 1027,2 hPa 0,0 l/m 2 min 0 min 874 W/m 12,9 km/h (3 Bft) 100,00 %
25.04.2021 13:02 11,3 C 15,6 C 17,3 C 58 % 1027,1 hPa 0,0 l/m 2 min 0 min 872 W/m 16,1 km/h (3 Bft) 97,87 %
25.04.2021 13:04 11,4 C 15,6 C 15,6 C 58 % 1027,1 hPa 0,0 l/m 2 min 0 min 878 W/m 25,7 km/h (4 Bft) 95,74 %
25.04.2021 13:06 11,3 C 15,0 C 13,9 C 57 % 1027,1 hPa 0,0 l/m 2 min 0 min 874 W/m 19,3 km/h (3 Bft) 95,74 %
25.04.2021 13:08 11,3 C 15,0 C 13,4 C 57 % 1027,1 hPa 0,0 l/m 2 min 0 min 892 W/m 22,5 km/h (4 Bft) 93,62 %
25.04.2021 13:10 11,4 C 16,1 C 12,8 C 58 % 1027,1 hPa 0,0 l/m 2 min 0 min 896 W/m 16,1 km/h (3 Bft) 95,65 %
25.04.2021 13:12 11,5 C 15,6 C 12,8 C 58 % 1027,1 hPa 0,0 l/m 2 min 0 min 894 W/m 19,3 km/h (3 Bft) 95,74 %
25.04.2021 13:14 11,5 C 15,6 C 13,9 C 57 % 1027,1 hPa 0,0 l/m 2 min 0 min 863 W/m 16,1 km/h (3 Bft) 91,49 %
25.04.2021 13:16 11,6 C 15,6 C 14,5 C 57 % 1027,0 hPa 0,0 l/m 2 min 0 min 728 W/m 16,1 km/h (3 Bft) 95,74 %
25.04.2021 13:18 11,7 C 15,0 C 15,6 C 58 % 1027,0 hPa 0,0 l/m 2 min 0 min 750 W/m 19,3 km/h (3 Bft) 95,74 %
25.04.2021 13:20 11,8 C 15,6 C 16,7 C 57 % 1027,1 hPa 0,0 l/m 2 min 0 min 893 W/m 22,5 km/h (4 Bft) 95,74 %
25.04.2021 13:22 11,8 C 16,1 C 17,3 C 58 % 1027,0 hPa 0,0 l/m 2 min 0 min 889 W/m 16,1 km/h (3 Bft) 95,65 %
25.04.2021 13:24 11,9 C 16,7 C 18,4 C 58 % 1027,0 hPa 0,0 l/m 2 min 0 min 887 W/m 12,9 km/h (3 Bft) 95,74 %
25.04.2021 13:26 12,0 C 17,2 C 18,4 C 58 % 1026,9 hPa 0,0 l/m 2 min 0 min 885 W/m 12,9 km/h (3 Bft) 95,74 %
25.04.2021 13:28 12,1 C 16,7 C 18,9 C 56 % 1026,9 hPa 0,0 l/m 2 min 0 min 885 W/m 12,9 km/h (3 Bft) 95,74 %
25.04.2021 13:30 12,0 C 15,6 C 19,5 C 56 % 1026,9 hPa 0,0 l/m 2 min 0 min 886 W/m 25,7 km/h (4 Bft) 95,74 %
25.04.2021 13:32 12,0 C 15,6 C 18,9 C 57 % 1026,9 hPa 0,0 l/m 2 min 0 min 886 W/m 19,3 km/h (3 Bft) 93,62 %
25.04.2021 13:34 12,0 C 15,6 C 19,5 C 56 % 1026,9 hPa 0,0 l/m 2 min 0 min 889 W/m 16,1 km/h (3 Bft) 95,65 %
25.04.2021 13:36 12,1 C 16,7 C 19,5 C 57 % 1026,8 hPa 0,0 l/m 2 min 0 min 896 W/m 9,7 km/h (2 Bft) 95,74 %
25.04.2021 13:38 12,2 C 16,7 C 19,5 C 57 % 1026,8 hPa 0,0 l/m 2 min 0 min 879 W/m 9,7 km/h (2 Bft) 95,74 %
25.04.2021 13:40 12,2 C 16,7 C 18,9 C 56 % 1026,8 hPa 0,0 l/m 2 min 0 min 860 W/m 16,1 km/h (3 Bft) 95,74 %
25.04.2021 13:42 12,3 C 16,7 C 17,3 C 56 % 1026,8 hPa 0,0 l/m 2 min 0 min 876 W/m 22,5 km/h (4 Bft) 95,74 %
25.04.2021 13:44 12,3 C 16,7 C 15,6 C 56 % 1026,8 hPa 0,0 l/m 2 min 0 min 844 W/m 22,5 km/h (4 Bft) 93,62 %
25.04.2021 13:46 12,3 C 17,2 C 13,4 C 55 % 1026,9 hPa 0,0 l/m 2 min 0 min 697 W/m 16,1 km/h (3 Bft) 93,48 %
25.04.2021 13:48 12,1 C 16,1 C 12,3 C 55 % 1026,8 hPa 0,0 l/m 2 min 0 min 804 W/m 12,9 km/h (3 Bft) 95,74 %
25.04.2021 13:50 12,1 C 17,2 C 11,7 C 57 % 1026,9 hPa 0,0 l/m 2 min 0 min 876 W/m 19,3 km/h (3 Bft) 93,62 %
25.04.2021 13:52 12,3 C 16,7 C 11,7 C 56 % 1026,9 hPa 0,0 l/m 2 min 0 min 871 W/m 16,1 km/h (3 Bft) 93,62 %
25.04.2021 13:54 12,3 C 16,7 C 11,1 C 56 % 1026,9 hPa 0,0 l/m 2 min 0 min 896 W/m 16,1 km/h (3 Bft) 95,74 %
25.04.2021 13:56 12,4 C 16,7 C 11,1 C 55 % 1026,8 hPa 0,0 l/m 2 min 0 min 880 W/m 9,7 km/h (2 Bft) 97,87 %
25.04.2021 13:58 12,4 C 16,7 C 10,6 C 55 % 1026,8 hPa 0,0 l/m 2 min 0 min 857 W/m 22,5 km/h (4 Bft) 97,83 %
25.04.2021 14:00 12,4 C 16,7 C 10,6 C 55 % 1026,8 hPa 0,0 l/m 2 min 0 min 900 W/m 19,3 km/h (3 Bft) 97,87 %
25.04.2021 14:02 12,5 C 17,8 C 10,6 C 55 % 1026,8 hPa 0,0 l/m 2 min 0 min 897 W/m 16,1 km/h (3 Bft) 95,74 %
25.04.2021 14:04 12,5 C 17,2 C 10,6 C 55 % 1026,8 hPa 0,0 l/m 2 min 0 min 888 W/m 19,3 km/h (3 Bft) 97,87 %
25.04.2021 14:06 12,5 C 17,8 C 10,6 C 55 % 1026,8 hPa 0,0 l/m 2 min 0 min 883 W/m 22,5 km/h (4 Bft) 97,87 %
25.04.2021 14:08 12,6 C 17,2 C 10,6 C 55 % 1026,8 hPa 0,0 l/m 2 min 0 min 885 W/m 16,1 km/h (3 Bft) 95,74 %
25.04.2021 14:10 12,6 C 17,2 C 10,0 C 54 % 1026,8 hPa 0,0 l/m 2 min 0 min 894 W/m 19,3 km/h (3 Bft) 97,83 %
25.04.2021 14:12 12,6 C 16,7 C 10,0 C 54 % 1026,9 hPa 0,0 l/m 2 min 0 min 887 W/m 12,9 km/h (3 Bft) 97,87 %
25.04.2021 14:14 12,6 C 16,7 C 10,0 C 55 % 1026,8 hPa 0,0 l/m 2 min 0 min 874 W/m 9,7 km/h (2 Bft) 97,87 %
25.04.2021 14:16 12,6 C 16,1 C 10,0 C 54 % 1026,8 hPa 0,0 l/m 2 min 0 min 871 W/m 22,5 km/h (4 Bft) 97,87 %
25.04.2021 14:18 12,7 C 17,2 C 10,0 C 55 % 1026,9 hPa 0,0 l/m 2 min 0 min 871 W/m 9,7 km/h (2 Bft) 97,87 %
25.04.2021 14:20 12,9 C 17,2 C 10,6 C 54 % 1026,8 hPa 0,0 l/m 2 min 0 min 875 W/m 19,3 km/h (3 Bft) 100,00 %
25.04.2021 14:22 13,0 C 17,8 C 10,6 C 54 % 1026,7 hPa 0,0 l/m 2 min 0 min 879 W/m 12,9 km/h (3 Bft) 97,83 %
25.04.2021 14:24 13,1 C 18,9 C 10,6 C 55 % 1026,8 hPa 0,0 l/m 2 min 0 min 851 W/m 12,9 km/h (3 Bft) 97,87 %
25.04.2021 14:26 13,3 C 18,3 C 10,6 C 55 % 1026,8 hPa 0,0 l/m 2 min 0 min 765 W/m 9,7 km/h (2 Bft) 100,00 %
25.04.2021 14:28 13,3 C 18,9 C 10,6 C 54 % 1026,8 hPa 0,0 l/m 2 min 0 min 866 W/m 6,4 km/h (2 Bft) 95,74 %
25.04.2021 14:30 13,4 C 18,9 C 10,0 C 54 % 1026,6 hPa 0,0 l/m 2 min 0 min 863 W/m 19,3 km/h (3 Bft) 100,00 %
25.04.2021 14:32 13,3 C 17,8 C 10,0 C 54 % 1026,8 hPa 0,0 l/m 2 min 0 min 853 W/m 22,5 km/h (4 Bft) 97,87 %
25.04.2021 14:34 13,3 C 18,3 C 10,0 C 54 % 1026,7 hPa 0,0 l/m 2 min 0 min 852 W/m 9,7 km/h (2 Bft) 100,00 %
25.04.2021 14:36 13,3 C 18,3 C 10,6 C 54 % 1026,8 hPa 0,0 l/m 2 min 0 min 855 W/m 16,1 km/h (3 Bft) 97,87 %
25.04.2021 14:38 13,3 C 18,3 C 10,0 C 53 % 1026,7 hPa 0,0 l/m 2 min 0 min 850 W/m 6,4 km/h (2 Bft) 95,74 %
25.04.2021 14:40 13,3 C 19,4 C 10,0 C 53 % 1026,6 hPa 0,0 l/m 2 min 0 min 847 W/m 9,7 km/h (2 Bft) 100,00 %
25.04.2021 14:42 13,3 C 18,3 C 10,0 C 53 % 1026,7 hPa 0,0 l/m 2 min 0 min 844 W/m 12,9 km/h (3 Bft) 100,00 %
25.04.2021 14:44 13,3 C 18,3 C 10,0 C 53 % 1026,7 hPa 0,0 l/m 2 min 0 min 840 W/m 12,9 km/h (3 Bft) 100,00 %
25.04.2021 14:46 13,4 C 19,4 C 10,0 C 53 % 1026,6 hPa 0,0 l/m 2 min 0 min 848 W/m 6,4 km/h (2 Bft) 97,83 %
25.04.2021 14:48 13,5 C 18,9 C 10,6 C 54 % 1026,7 hPa 0,0 l/m 2 min 0 min 850 W/m 19,3 km/h (3 Bft) 97,87 %
25.04.2021 14:50 13,5 C 18,9 C 10,6 C 54 % 1026,6 hPa 0,0 l/m 2 min 0 min 840 W/m 12,9 km/h (3 Bft) 97,87 %
25.04.2021 14:52 13,6 C 19,4 C 10,6 C 55 % 1026,6 hPa 0,0 l/m 2 min 0 min 836 W/m 16,1 km/h (3 Bft) 97,87 %
25.04.2021 14:54 13,7 C 18,9 C 10,6 C 54 % 1026,7 hPa 0,0 l/m 2 min 0 min 835 W/m 16,1 km/h (3 Bft) 95,74 %
25.04.2021 14:56 13,8 C 18,9 C 10,6 C 53 % 1026,7 hPa 0,0 l/m 2 min 0 min 825 W/m 29,0 km/h (5 Bft) 97,87 %
25.04.2021 14:58 13,8 C 18,3 C 10,6 C 53 % 1026,7 hPa 0,0 l/m 2 min 0 min 824 W/m 22,5 km/h (4 Bft) 95,65 %
25.04.2021 15:00 13,6 C 18,3 C 10,6 C 54 % 1026,6 hPa 0,0 l/m 2 min 0 min 825 W/m 19,3 km/h (3 Bft) 95,74 %
25.04.2021 15:02 13,7 C 17,8 C 10,6 C 54 % 1026,7 hPa 0,0 l/m 2 min 0 min 824 W/m 19,3 km/h (3 Bft) 97,87 %
25.04.2021 15:04 13,7 C 17,8 C 10,6 C 53 % 1026,6 hPa 0,0 l/m 2 min 0 min 822 W/m 22,5 km/h (4 Bft) 89,36 %
25.04.2021 15:06 13,6 C 18,3 C 10,6 C 53 % 1026,6 hPa 0,0 l/m 2 min 0 min 827 W/m 12,9 km/h (3 Bft) 93,62 %
25.04.2021 15:08 13,6 C 18,3 C 10,6 C 53 % 1026,7 hPa 0,0 l/m 2 min 0 min 831 W/m 19,3 km/h (3 Bft) 82,98 %
25.04.2021 15:10 13,5 C 17,2 C 10,0 C 52 % 1026,6 hPa 0,0 l/m 2 min 0 min 793 W/m 19,3 km/h (3 Bft) 95,65 %
25.04.2021 15:12 13,5 C 17,2 C 10,0 C 53 % 1026,6 hPa 0,0 l/m 2 min 0 min 745 W/m 16,1 km/h (3 Bft) 97,87 %
25.04.2021 15:14 13,4 C 17,2 C 10,0 C 53 % 1026,6 hPa 0,0 l/m 2 min 0 min 780 W/m 12,9 km/h (3 Bft) 97,87 %
25.04.2021 15:16 13,4 C 17,8 C 10,0 C 53 % 1026,5 hPa 0,0 l/m 2 min 0 min 825 W/m 12,9 km/h (3 Bft) 97,87 %
25.04.2021 15:18 13,5 C 17,8 C 10,0 C 53 % 1026,5 hPa 0,0 l/m 2 min 0 min 826 W/m 12,9 km/h (3 Bft) 95,74 %
25.04.2021 15:20 13,5 C 18,3 C 10,0 C 53 % 1026,5 hPa 0,0 l/m 2 min 0 min 820 W/m 16,1 km/h (3 Bft) 97,87 %
25.04.2021 15:22 13,6 C 18,3 C 10,0 C 53 % 1026,4 hPa 0,0 l/m 2 min 0 min 805 W/m 6,4 km/h (2 Bft) 97,83 %
25.04.2021 15:24 13,6 C 17,8 C 10,6 C 53 % 1026,4 hPa 0,0 l/m 2 min 0 min 773 W/m 12,9 km/h (3 Bft) 97,87 %
25.04.2021 15:26 13,8 C 17,8 C 10,6 C 54 % 1026,4 hPa 0,0 l/m 2 min 0 min 788 W/m 22,5 km/h (4 Bft) 95,74 %
25.04.2021 15:28 13,8 C 18,3 C 10,6 C 52 % 1026,4 hPa 0,0 l/m 2 min 0 min 803 W/m 32,2 km/h (5 Bft) 97,87 %
25.04.2021 15:30 13,9 C 18,3 C 10,6 C 52 % 1026,5 hPa 0,0 l/m 2 min 0 min 802 W/m 12,9 km/h (3 Bft) 97,87 %
25.04.2021 15:32 13,8 C 18,3 C 10,6 C 52 % 1026,4 hPa 0,0 l/m 2 min 0 min 784 W/m 12,9 km/h (3 Bft) 97,87 %
25.04.2021 15:34 13,9 C 18,3 C 10,6 C 53 % 1026,4 hPa 0,0 l/m 2 min 0 min 761 W/m 29,0 km/h (5 Bft) 93,48 %
25.04.2021 15:36 13,9 C 18,3 C 10,6 C 53 % 1026,4 hPa 0,0 l/m 2 min 0 min 754 W/m 12,9 km/h (3 Bft) 95,74 %
25.04.2021 15:38 13,9 C 18,3 C 10,6 C 52 % 1026,4 hPa 0,0 l/m 2 min 0 min 777 W/m 12,9 km/h (3 Bft) 97,92 %
25.04.2021 15:40 13,9 C 18,9 C 10,6 C 52 % 1026,4 hPa 0,0 l/m 2 min 0 min 774 W/m 22,5 km/h (4 Bft) 97,87 %
25.04.2021 15:42 14,0 C 18,3 C 10,6 C 53 % 1026,4 hPa 0,0 l/m 2 min 0 min 780 W/m 25,7 km/h (4 Bft) 93,62 %
25.04.2021 15:44 14,0 C 18,3 C 10,6 C 52 % 1026,3 hPa 0,0 l/m 2 min 0 min 779 W/m 9,7 km/h (2 Bft) 97,83 %
25.04.2021 15:46 13,9 C 18,3 C 10,6 C 53 % 1026,3 hPa 0,0 l/m 2 min 0 min 788 W/m 16,1 km/h (3 Bft) 95,74 %
25.04.2021 15:48 14,0 C 18,9 C 10,6 C 52 % 1026,2 hPa 0,0 l/m 2 min 0 min 778 W/m 12,9 km/h (3 Bft) 97,87 %
25.04.2021 15:50 14,0 C 18,9 C 11,1 C 53 % 1026,3 hPa 0,0 l/m 2 min 0 min 734 W/m 12,9 km/h (3 Bft) 97,87 %
25.04.2021 15:52 14,0 C 18,9 C 11,1 C 53 % 1026,2 hPa 0,0 l/m 2 min 0 min 728 W/m 16,1 km/h (3 Bft) 97,87 %
25.04.2021 15:54 14,0 C 18,9 C 11,1 C 53 % 1026,1 hPa 0,0 l/m 2 min 0 min 714 W/m 12,9 km/h (3 Bft) 97,87 %
25.04.2021 15:56 14,1 C 18,9 C 11,1 C 52 % 1026,1 hPa 0,0 l/m 2 min 0 min 691 W/m 12,9 km/h (3 Bft) 95,65 %
25.04.2021 15:58 14,2 C 20,0 C 11,1 C 52 % 1026,1 hPa 0,0 l/m 2 min 0 min 659 W/m 12,9 km/h (3 Bft) 97,87 %
25.04.2021 16:00 14,2 C 20,0 C 11,1 C 52 % 1026,0 hPa 0,0 l/m 2 min 0 min 674 W/m 9,7 km/h (2 Bft) 97,87 %
25.04.2021 16:02 14,2 C 20,0 C 11,1 C 52 % 1026,1 hPa 0,0 l/m 2 min 0 min 670 W/m 19,3 km/h (3 Bft) 100,00 %
25.04.2021 16:04 14,2 C 19,4 C 11,1 C 52 % 1026,0 hPa 0,0 l/m 2 min 0 min 667 W/m 22,5 km/h (4 Bft) 100,00 %
25.04.2021 16:06 14,1 C 19,4 C 11,1 C 52 % 1026,0 hPa 0,0 l/m 2 min 0 min 713 W/m 16,1 km/h (3 Bft) 97,87 %
25.04.2021 16:08 14,0 C 19,4 C 11,1 C 51 % 1026,0 hPa 0,0 l/m 2 min 0 min 739 W/m 22,5 km/h (4 Bft) 100,00 %
25.04.2021 16:10 13,9 C 20,0 C 11,1 C 52 % 1026,0 hPa 0,0 l/m 2 min 0 min 740 W/m 25,7 km/h (4 Bft) 97,87 %
25.04.2021 16:12 13,9 C 20,0 C 11,1 C 53 % 1025,9 hPa 0,0 l/m 2 min 0 min 732 W/m 16,1 km/h (3 Bft) 97,87 %
25.04.2021 16:14 13,8 C 20,6 C 11,1 C 52 % 1025,9 hPa 0,0 l/m 2 min 0 min 708 W/m 12,9 km/h (3 Bft) 97,87 %
25.04.2021 16:16 13,9 C 20,6 C 11,1 C 53 % 1025,9 hPa 0,0 l/m 2 min 0 min 671 W/m 25,7 km/h (4 Bft) 97,87 %
25.04.2021 16:18 13,9 C 20,6 C 11,1 C 53 % 1025,8 hPa 0,0 l/m 2 min 0 min 702 W/m 22,5 km/h (4 Bft) 97,87 %
25.04.2021 16:20 13,9 C 20,6 C 11,1 C 53 % 1025,8 hPa 0,0 l/m 2 min 0 min 702 W/m 16,1 km/h (3 Bft) 97,83 %
25.04.2021 16:22 13,9 C 20,0 C 11,1 C 53 % 1025,8 hPa 0,0 l/m 2 min 0 min 701 W/m 12,9 km/h (3 Bft) 97,87 %
25.04.2021 16:24 13,9 C 20,0 C 11,1 C 52 % 1025,8 hPa 0,0 l/m 2 min 0 min 680 W/m 16,1 km/h (3 Bft) 95,74 %
25.04.2021 16:26 13,9 C 20,6 C 11,1 C 53 % 1025,8 hPa 0,0 l/m 2 min 0 min 666 W/m 9,7 km/h (2 Bft) 97,87 %
25.04.2021 16:28 13,9 C 20,6 C 11,1 C 53 % 1025,8 hPa 0,0 l/m 2 min 0 min 660 W/m 16,1 km/h (3 Bft) 95,74 %
25.04.2021 16:30 14,0 C 20,6 C 11,7 C 52 % 1025,8 hPa 0,0 l/m 2 min 0 min 661 W/m 22,5 km/h (4 Bft) 93,62 %
25.04.2021 16:32 14,0 C 20,0 C 11,1 C 52 % 1025,8 hPa 0,0 l/m 2 min 0 min 655 W/m 22,5 km/h (4 Bft) 95,65 %
25.04.2021 16:34 13,9 C 21,1 C 11,1 C 52 % 1025,8 hPa 0,0 l/m 2 min 0 min 651 W/m 9,7 km/h (2 Bft) 95,74 %
25.04.2021 16:36 13,9 C 21,7 C 11,7 C 54 % 1025,7 hPa 0,0 l/m 2 min 0 min 638 W/m 9,7 km/h (2 Bft) 93,62 %
25.04.2021 16:38 13,9 C 21,1 C 11,7 C 53 % 1025,7 hPa 0,0 l/m 2 min 0 min 626 W/m 19,3 km/h (3 Bft) 95,74 %
25.04.2021 16:40 13,9 C 21,1 C 11,7 C 52 % 1025,6 hPa 0,0 l/m 2 min 0 min 628 W/m 16,1 km/h (3 Bft) 95,74 %
25.04.2021 16:42 13,9 C 21,1 C 11,7 C 53 % 1025,6 hPa 0,0 l/m 2 min 0 min 633 W/m 19,3 km/h (3 Bft) 93,62 %
25.04.2021 16:44 14,0 C 20,6 C 11,7 C 53 % 1025,7 hPa 0,0 l/m 2 min 0 min 629 W/m 19,3 km/h (3 Bft) 95,65 %
25.04.2021 16:46 13,9 C 20,6 C 11,7 C 53 % 1025,6 hPa 0,0 l/m 2 min 0 min 632 W/m 16,1 km/h (3 Bft) 95,74 %
25.04.2021 16:48 13,9 C 20,6 C 11,7 C 52 % 1025,7 hPa 0,0 l/m 2 min 0 min 629 W/m 25,7 km/h (4 Bft) 95,74 %
25.04.2021 16:50 13,9 C 20,0 C 11,7 C 52 % 1025,6 hPa 0,0 l/m 2 min 0 min 616 W/m 22,5 km/h (4 Bft) 95,74 %
25.04.2021 16:52 13,9 C 20,6 C 11,7 C 52 % 1025,6 hPa 0,0 l/m 2 min 0 min 613 W/m 16,1 km/h (3 Bft) 95,74 %
25.04.2021 16:54 13,9 C 21,1 C 11,7 C 53 % 1025,6 hPa 0,0 l/m 2 min 0 min 609 W/m 12,9 km/h (3 Bft) 95,74 %
25.04.2021 16:56 14,1 C 21,7 C 12,3 C 53 % 1025,6 hPa 0,0 l/m 2 min 0 min 595 W/m 19,3 km/h (3 Bft) 95,65 %
25.04.2021 16:58 14,1 C 20,6 C 11,7 C 53 % 1025,6 hPa 0,0 l/m 2 min 0 min 585 W/m 12,9 km/h (3 Bft) 95,74 %
25.04.2021 17:00 14,1 C 21,7 C 12,3 C 53 % 1025,5 hPa 0,0 l/m 2 min 0 min 586 W/m 12,9 km/h (3 Bft) 93,62 %
25.04.2021 17:02 14,2 C 21,7 C 12,3 C 53 % 1025,5 hPa 0,0 l/m 2 min 0 min 583 W/m 9,7 km/h (2 Bft) 93,62 %
25.04.2021 17:04 14,2 C 21,7 C 12,3 C 52 % 1025,5 hPa 0,0 l/m 2 min 0 min 577 W/m 19,3 km/h (3 Bft) 97,87 %
25.04.2021 17:06 14,2 C 20,6 C 12,3 C 52 % 1025,6 hPa 0,0 l/m 2 min 0 min 577 W/m 19,3 km/h (3 Bft) 97,87 %
25.04.2021 17:08 14,2 C 20,0 C 12,3 C 52 % 1025,5 hPa 0,0 l/m 2 min 0 min 558 W/m 19,3 km/h (3 Bft) 100,00 %
25.04.2021 17:10 14,2 C 20,6 C 12,3 C 53 % 1025,5 hPa 0,0 l/m 2 min 0 min 559 W/m 12,9 km/h (3 Bft) 100,00 %
25.04.2021 17:12 14,2 C 20,0 C 11,7 C 52 % 1025,5 hPa 0,0 l/m 2 min 0 min 557 W/m 16,1 km/h (3 Bft) 97,87 %
25.04.2021 17:14 14,2 C 21,1 C 12,3 C 52 % 1025,5 hPa 0,0 l/m 2 min 0 min 553 W/m 12,9 km/h (3 Bft) 97,87 %
25.04.2021 17:16 14,2 C 21,1 C 12,3 C 53 % 1025,4 hPa 0,0 l/m 2 min 0 min 545 W/m 19,3 km/h (3 Bft) 100,00 %
25.04.2021 17:18 14,2 C 20,6 C 12,3 C 53 % 1025,5 hPa 0,0 l/m 2 min 0 min 535 W/m 19,3 km/h (3 Bft) 100,00 %
25.04.2021 17:20 14,2 C 20,6 C 12,3 C 53 % 1025,4 hPa 0,0 l/m 2 min 0 min 533 W/m 22,5 km/h (4 Bft) 97,83 %
25.04.2021 17:22 14,1 C 20,0 C 11,7 C 52 % 1025,4 hPa 0,0 l/m 2 min 0 min 530 W/m 22,5 km/h (4 Bft) 100,00 %
25.04.2021 17:24 14,0 C 19,4 C 11,7 C 52 % 1025,4 hPa 0,0 l/m 2 min 0 min 526 W/m 16,1 km/h (3 Bft) 100,00 %
25.04.2021 17:26 14,0 C 19,4 C 11,7 C 52 % 1025,4 hPa 0,0 l/m 2 min 0 min 521 W/m 12,9 km/h (3 Bft) 100,00 %
25.04.2021 17:28 14,0 C 20,0 C 11,7 C 53 % 1025,3 hPa 0,0 l/m 2 min 0 min 513 W/m 6,4 km/h (2 Bft) 100,00 %
25.04.2021 17:30 14,2 C 20,6 C 11,7 C 53 % 1025,3 hPa 0,0 l/m 2 min 0 min 499 W/m 6,4 km/h (2 Bft) 100,00 %
25.04.2021 17:32 14,3 C 20,6 C 11,7 C 52 % 1025,2 hPa 0,0 l/m 2 min 0 min 492 W/m 22,5 km/h (4 Bft) 97,83 %
25.04.2021 17:34 14,3 C 20,0 C 11,7 C 52 % 1025,3 hPa 0,0 l/m 2 min 0 min 483 W/m 22,5 km/h (4 Bft) 100,00 %
25.04.2021 17:36 14,2 C 20,0 C 11,7 C 52 % 1025,3 hPa 0,0 l/m 2 min 0 min 479 W/m 12,9 km/h (3 Bft) 100,00 %
25.04.2021 17:38 14,2 C 20,0 C 11,7 C 52 % 1025,3 hPa 0,0 l/m 2 min 0 min 480 W/m 12,9 km/h (3 Bft) 100,00 %
25.04.2021 17:40 14,2 C 20,0 C 12,3 C 52 % 1025,2 hPa 0,0 l/m 2 min 0 min 468 W/m 22,5 km/h (4 Bft) 100,00 %
25.04.2021 17:42 14,2 C 19,4 C 12,3 C 51 % 1025,2 hPa 0,0 l/m 2 min 0 min 460 W/m 12,9 km/h (3 Bft) 97,87 %
25.04.2021 17:44 14,1 C 20,6 C 12,3 C 53 % 1025,2 hPa 0,0 l/m 2 min 0 min 473 W/m 16,1 km/h (3 Bft) 100,00 %
25.04.2021 17:46 14,2 C 21,1 C 12,3 C 53 % 1025,2 hPa 0,0 l/m 2 min 0 min 468 W/m 19,3 km/h (3 Bft) 100,00 %
25.04.2021 17:48 14,2 C 20,6 C 12,3 C 53 % 1025,2 hPa 0,0 l/m 2 min 0 min 463 W/m 22,5 km/h (4 Bft) 100,00 %
25.04.2021 17:50 14,1 C 20,6 C 12,3 C 52 % 1025,2 hPa 0,0 l/m 2 min 0 min 456 W/m 22,5 km/h (4 Bft) 100,00 %
25.04.2021 17:52 14,1 C 20,0 C 12,3 C 52 % 1025,1 hPa 0,0 l/m 2 min 0 min 450 W/m 16,1 km/h (3 Bft) 100,00 %
25.04.2021 17:54 14,0 C 19,4 C 12,3 C 52 % 1025,2 hPa 0,0 l/m 2 min 0 min 410 W/m 19,3 km/h (3 Bft) 100,00 %
25.04.2021 17:56 14,0 C 19,4 C 12,3 C 52 % 1025,2 hPa 0,0 l/m 2 min 0 min 404 W/m 16,1 km/h (3 Bft) 100,00 %
25.04.2021 17:58 14,0 C 19,4 C 11,7 C 52 % 1025,1 hPa 0,0 l/m 2 min 0 min 406 W/m 19,3 km/h (3 Bft) 100,00 %
25.04.2021 18:00 13,9 C 19,4 C 11,7 C 52 % 1025,1 hPa 0,0 l/m 2 min 0 min 402 W/m 12,9 km/h (3 Bft) 100,00 %
25.04.2021 18:02 13,9 C 18,9 C 11,7 C 52 % 1025,1 hPa 0,0 l/m 2 min 0 min 395 W/m 12,9 km/h (3 Bft) 97,87 %
25.04.2021 18:04 13,9 C 19,4 C 11,7 C 53 % 1025,1 hPa 0,0 l/m 2 min 0 min 400 W/m 12,9 km/h (3 Bft) 97,87 %
25.04.2021 18:08 13,9 C 18,9 C 11,7 C 52 % 1025,0 hPa 0,0 l/m 4 min 0 min 404 W/m 25,7 km/h (4 Bft) 98,92 %
25.04.2021 18:10 13,8 C 18,9 C 11,7 C 53 % 1025,0 hPa 0,0 l/m 2 min 0 min 401 W/m 22,5 km/h (4 Bft) 97,87 %
25.04.2021 18:12 13,8 C 18,9 C 11,7 C 52 % 1025,1 hPa 0,0 l/m 2 min 0 min 389 W/m 22,5 km/h (4 Bft) 100,00 %
25.04.2021 18:14 13,7 C 18,9 C 11,7 C 53 % 1025,1 hPa 0,0 l/m 2 min 0 min 388 W/m 16,1 km/h (3 Bft) 100,00 %
25.04.2021 18:16 13,8 C 18,9 C 11,7 C 53 % 1025,0 hPa 0,0 l/m 2 min 0 min 375 W/m 16,1 km/h (3 Bft) 100,00 %
25.04.2021 18:18 13,7 C 18,3 C 11,1 C 52 % 1025,0 hPa 0,0 l/m 2 min 0 min 349 W/m 22,5 km/h (4 Bft) 100,00 %
25.04.2021 18:20 13,5 C 18,3 C 11,1 C 53 % 1025,0 hPa 0,0 l/m 2 min 0 min 349 W/m 19,3 km/h (3 Bft) 97,87 %
25.04.2021 18:22 13,5 C 17,8 C 11,1 C 53 % 1025,0 hPa 0,0 l/m 2 min 0 min 361 W/m 16,1 km/h (3 Bft) 97,87 %
25.04.2021 18:24 13,5 C 18,9 C 11,7 C 53 % 1024,9 hPa 0,0 l/m 2 min 0 min 351 W/m 22,5 km/h (4 Bft) 97,87 %
25.04.2021 18:26 13,5 C 18,9 C 11,1 C 53 % 1025,0 hPa 0,0 l/m 2 min 0 min 317 W/m 29,0 km/h (5 Bft) 97,87 %
25.04.2021 18:28 13,4 C 18,3 C 11,1 C 53 % 1024,9 hPa 0,0 l/m 2 min 0 min 342 W/m 22,5 km/h (4 Bft) 97,87 %
25.04.2021 18:30 13,4 C 18,3 C 11,1 C 53 % 1024,9 hPa 0,0 l/m 2 min 0 min 315 W/m 22,5 km/h (4 Bft) 97,87 %
25.04.2021 18:32 13,4 C 18,3 C 11,1 C 53 % 1025,0 hPa 0,0 l/m 2 min 0 min 287 W/m 16,1 km/h (3 Bft) 97,83 %
25.04.2021 18:34 13,4 C 17,2 C 10,6 C 52 % 1025,0 hPa 0,0 l/m 2 min 0 min 248 W/m 16,1 km/h (3 Bft) 97,87 %
25.04.2021 18:36 13,3 C 17,2 C 10,6 C 53 % 1025,0 hPa 0,0 l/m 2 min 0 min 229 W/m 12,9 km/h (3 Bft) 97,87 %
25.04.2021 18:38 13,3 C 16,7 C 10,6 C 52 % 1024,9 hPa 0,0 l/m 2 min 0 min 207 W/m 12,9 km/h (3 Bft) 97,87 %
25.04.2021 18:40 13,2 C 16,1 C 10,6 C 53 % 1024,9 hPa 0,0 l/m 2 min 0 min 244 W/m 9,7 km/h (2 Bft) 97,87 %
25.04.2021 18:42 13,1 C 15,6 C 10,0 C 54 % 1024,9 hPa 0,0 l/m 2 min 0 min 258 W/m 12,9 km/h (3 Bft) 95,65 %
25.04.2021 18:44 13,0 C 14,4 C 10,0 C 53 % 1024,9 hPa 0,0 l/m 2 min 0 min 240 W/m 9,7 km/h (2 Bft) 97,87 %
25.04.2021 18:46 13,0 C 13,9 C 10,0 C 53 % 1024,9 hPa 0,0 l/m 2 min 0 min 226 W/m 6,4 km/h (2 Bft) 97,87 %
25.04.2021 18:48 12,9 C 13,3 C 10,0 C 54 % 1024,9 hPa 0,0 l/m 2 min 0 min 249 W/m 9,7 km/h (2 Bft) 97,87 %
25.04.2021 18:50 12,9 C 13,3 C 10,0 C 54 % 1024,8 hPa 0,0 l/m 2 min 0 min 256 W/m 12,9 km/h (3 Bft) 97,87 %
25.04.2021 18:52 12,8 C 13,3 C 10,0 C 54 % 1024,8 hPa 0,0 l/m 2 min 0 min 246 W/m 6,4 km/h (2 Bft) 93,62 %
25.04.2021 18:54 12,8 C 13,3 C 10,0 C 55 % 1024,9 hPa 0,0 l/m 2 min 0 min 206 W/m 12,9 km/h (3 Bft) 97,83 %
25.04.2021 18:56 12,8 C 12,8 C 9,5 C 54 % 1024,8 hPa 0,0 l/m 2 min 0 min 146 W/m 22,5 km/h (4 Bft) 95,74 %
25.04.2021 18:58 12,6 C 12,2 C 9,5 C 54 % 1024,8 hPa 0,0 l/m 0 min 0 min 104 W/m 12,9 km/h (3 Bft) 95,74 %
25.04.2021 19:00 12,5 C 12,2 C 9,5 C 55 % 1024,8 hPa 0,0 l/m 0 min 0 min 76 W/m 19,3 km/h (3 Bft) 93,62 %
25.04.2021 19:02 12,4 C 12,2 C 8,9 C 55 % 1024,8 hPa 0,0 l/m 0 min 0 min 73 W/m 9,7 km/h (2 Bft) 97,92 %
25.04.2021 19:04 12,2 C 11,7 C 8,9 C 55 % 1024,8 hPa 0,0 l/m 0 min 0 min 73 W/m 16,1 km/h (3 Bft) 97,87 %
25.04.2021 19:06 12,1 C 11,7 C 8,9 C 55 % 1024,8 hPa 0,0 l/m 0 min 0 min 77 W/m 19,3 km/h (3 Bft) 97,83 %
25.04.2021 19:08 12,0 C 11,7 C 8,9 C 55 % 1024,8 hPa 0,0 l/m 0 min 0 min 79 W/m 12,9 km/h (3 Bft) 95,74 %
25.04.2021 19:10 12,0 C 11,7 C 8,9 C 56 % 1024,8 hPa 0,0 l/m 0 min 0 min 72 W/m 9,7 km/h (2 Bft) 95,74 %
25.04.2021 19:12 11,9 C 11,7 C 8,9 C 56 % 1024,8 hPa 0,0 l/m 0 min 0 min 73 W/m 19,3 km/h (3 Bft) 95,74 %
25.04.2021 19:14 11,8 C 11,7 C 8,9 C 56 % 1024,7 hPa 0,0 l/m 0 min 0 min 74 W/m 12,9 km/h (3 Bft) 93,62 %
25.04.2021 19:16 11,8 C 11,7 C 8,9 C 56 % 1024,7 hPa 0,0 l/m 0 min 0 min 71 W/m 9,7 km/h (2 Bft) 95,74 %
25.04.2021 19:18 11,6 C 11,7 C 8,9 C 57 % 1024,7 hPa 0,0 l/m 0 min 0 min 69 W/m 6,4 km/h (2 Bft) 95,65 %
25.04.2021 19:20 11,6 C 11,7 C 8,9 C 56 % 1024,7 hPa 0,0 l/m 0 min 0 min 67 W/m 9,7 km/h (2 Bft) 93,62 %
25.04.2021 19:22 11,6 C 11,7 C 8,9 C 57 % 1024,7 hPa 0,0 l/m 0 min 0 min 64 W/m 9,7 km/h (2 Bft) 93,62 %
25.04.2021 19:24 11,5 C 11,7 C 8,9 C 58 % 1024,7 hPa 0,0 l/m 0 min 0 min 62 W/m 6,4 km/h (2 Bft) 95,74 %
25.04.2021 19:26 11,5 C 11,7 C 8,4 C 58 % 1024,7 hPa 0,0 l/m 0 min 0 min 62 W/m 6,4 km/h (2 Bft) 95,74 %
25.04.2021 19:28 11,5 C 11,1 C 8,4 C 57 % 1024,7 hPa 0,0 l/m 0 min 0 min 62 W/m 12,9 km/h (3 Bft) 95,74 %
25.04.2021 19:30 11,4 C 11,1 C 8,4 C 57 % 1024,7 hPa 0,0 l/m 0 min 0 min 62 W/m 19,3 km/h (3 Bft) 95,65 %
25.04.2021 19:32 11,4 C 11,1 C 8,4 C 57 % 1024,7 hPa 0,0 l/m 0 min 0 min 62 W/m 16,1 km/h (3 Bft) 95,74 %
25.04.2021 19:34 11,4 C 11,1 C 8,4 C 57 % 1024,7 hPa 0,0 l/m 0 min 0 min 62 W/m 12,9 km/h (3 Bft) 95,74 %
25.04.2021 19:36 11,4 C 11,1 C 8,4 C 57 % 1024,7 hPa 0,0 l/m 0 min 0 min 61 W/m 9,7 km/h (2 Bft) 93,62 %
25.04.2021 19:38 11,3 C 11,1 C 8,4 C 58 % 1024,7 hPa 0,0 l/m 0 min 0 min 59 W/m 9,7 km/h (2 Bft) 95,74 %
25.04.2021 19:40 11,3 C 11,1 C 8,4 C 58 % 1024,8 hPa 0,0 l/m 0 min 0 min 58 W/m 12,9 km/h (3 Bft) 95,74 %
25.04.2021 19:42 11,2 C 11,1 C 8,4 C 57 % 1024,7 hPa 0,0 l/m 0 min 0 min 55 W/m 16,1 km/h (3 Bft) 95,65 %
25.04.2021 19:44 11,1 C 10,6 C 8,4 C 57 % 1024,8 hPa 0,0 l/m 0 min 0 min 53 W/m 12,9 km/h (3 Bft) 93,62 %
25.04.2021 19:46 11,1 C 10,6 C 8,4 C 58 % 1024,7 hPa 0,0 l/m 0 min 0 min 50 W/m 6,4 km/h (2 Bft) 95,74 %
25.04.2021 19:48 11,0 C 10,6 C 7,8 C 58 % 1024,7 hPa 0,0 l/m 0 min 0 min 47 W/m 12,9 km/h (3 Bft) 95,74 %
25.04.2021 19:50 11,0 C 10,6 C 7,8 C 57 % 1024,7 hPa 0,0 l/m 0 min 0 min 43 W/m 16,1 km/h (3 Bft) 93,62 %
25.04.2021 19:52 10,9 C 10,6 C 7,8 C 57 % 1024,7 hPa 0,0 l/m 0 min 0 min 41 W/m 12,9 km/h (3 Bft) 93,62 %
25.04.2021 19:54 10,9 C 10,6 C 7,8 C 57 % 1024,7 hPa 0,0 l/m 0 min 0 min 39 W/m 12,9 km/h (3 Bft) 95,65 %
25.04.2021 19:56 10,9 C 10,6 C 7,8 C 57 % 1024,7 hPa 0,0 l/m 0 min 0 min 36 W/m 9,7 km/h (2 Bft) 95,74 %
25.04.2021 19:58 10,9 C 10,0 C 7,8 C 58 % 1024,7 hPa 0,0 l/m 0 min 0 min 34 W/m 9,7 km/h (2 Bft) 95,74 %
25.04.2021 20:00 10,9 C 10,0 C 7,8 C 58 % 1024,7 hPa 0,0 l/m 0 min 0 min 33 W/m 9,7 km/h (2 Bft) 91,49 %
25.04.2021 20:02 10,8 C 10,0 C 7,8 C 58 % 1024,7 hPa 0,0 l/m 0 min 0 min 31 W/m 12,9 km/h (3 Bft) 91,49 %
25.04.2021 20:04 10,8 C 10,0 C 7,8 C 58 % 1024,6 hPa 0,0 l/m 0 min 0 min 30 W/m 12,9 km/h (3 Bft) 100,00 %
25.04.2021 20:06 10,7 C 10,0 C 7,3 C 57 % 1024,6 hPa 0,0 l/m 0 min 0 min 30 W/m 16,1 km/h (3 Bft) 100,00 %
25.04.2021 20:08 10,6 C 10,0 C 7,3 C 57 % 1024,6 hPa 0,0 l/m 0 min 0 min 29 W/m 12,9 km/h (3 Bft) 97,87 %
25.04.2021 20:10 10,6 C 10,0 C 7,3 C 58 % 1024,6 hPa 0,0 l/m 0 min 0 min 27 W/m 16,1 km/h (3 Bft) 93,62 %
25.04.2021 20:12 10,5 C 10,0 C 7,3 C 58 % 1024,5 hPa 0,0 l/m 0 min 0 min 26 W/m 6,4 km/h (2 Bft) 100,00 %
25.04.2021 20:14 10,5 C 10,0 C 7,3 C 58 % 1024,5 hPa 0,0 l/m 0 min 0 min 25 W/m 6,4 km/h (2 Bft) 100,00 %
25.04.2021 20:16 10,5 C 9,4 C 7,3 C 58 % 1024,6 hPa 0,0 l/m 0 min 0 min 24 W/m 16,1 km/h (3 Bft) 97,83 %
25.04.2021 20:18 10,4 C 9,4 C 7,3 C 58 % 1024,6 hPa 0,0 l/m 0 min 0 min 22 W/m 12,9 km/h (3 Bft) 95,74 %
25.04.2021 20:20 10,4 C 9,4 C 7,3 C 58 % 1024,6 hPa 0,0 l/m 0 min 0 min 21 W/m 16,1 km/h (3 Bft) 95,74 %
25.04.2021 20:22 10,4 C 9,4 C 7,3 C 58 % 1024,6 hPa 0,0 l/m 0 min 0 min 19 W/m 16,1 km/h (3 Bft) 97,87 %
25.04.2021 20:24 10,3 C 9,4 C 7,3 C 58 % 1024,6 hPa 0,0 l/m 0 min 0 min 19 W/m 9,7 km/h (2 Bft) 95,74 %
25.04.2021 20:26 10,3 C 9,4 C 6,7 C 58 % 1024,6 hPa 0,0 l/m 0 min 0 min 18 W/m 6,4 km/h (2 Bft) 97,87 %
25.04.2021 20:28 10,2 C 9,4 C 6,7 C 59 % 1024,5 hPa 0,0 l/m 0 min 0 min 16 W/m 9,7 km/h (2 Bft) 93,48 %
25.04.2021 20:30 10,1 C 9,4 C 6,7 C 59 % 1024,5 hPa 0,0 l/m 0 min 0 min 15 W/m 9,7 km/h (2 Bft) 97,87 %
25.04.2021 20:32 10,1 C 9,4 C 6,7 C 60 % 1024,5 hPa 0,0 l/m 0 min 0 min 14 W/m 3,2 km/h (1 Bft) 95,74 %
25.04.2021 20:34 10,1 C 8,9 C 6,7 C 60 % 1024,6 hPa 0,0 l/m 0 min 0 min 12 W/m 6,4 km/h (2 Bft) 95,74 %
25.04.2021 20:36 10,0 C 8,9 C 6,7 C 60 % 1024,6 hPa 0,0 l/m 0 min 0 min 12 W/m 3,2 km/h (1 Bft) 97,87 %
25.04.2021 20:38 10,0 C 8,9 C 6,7 C 60 % 1024,6 hPa 0,0 l/m 0 min 0 min 11 W/m 6,4 km/h (2 Bft) 97,87 %
25.04.2021 20:40 10,0 C 8,9 C 6,7 C 60 % 1024,6 hPa 0,0 l/m 0 min 0 min 9 W/m 3,2 km/h (1 Bft) 97,83 %
25.04.2021 20:42 10,0 C 8,9 C 6,7 C 61 % 1024,6 hPa 0,0 l/m 0 min 0 min 8 W/m 6,4 km/h (2 Bft) 97,87 %
25.04.2021 20:44 9,9 C 8,9 C 6,1 C 62 % 1024,5 hPa 0,0 l/m 0 min 0 min 7 W/m 12,9 km/h (3 Bft) 100,00 %
25.04.2021 20:46 9,8 C 8,3 C 6,1 C 61 % 1024,6 hPa 0,0 l/m 0 min 0 min 5 W/m 9,7 km/h (2 Bft) 100,00 %
25.04.2021 20:48 9,8 C 8,9 C 6,1 C 61 % 1024,5 hPa 0,0 l/m 0 min 0 min 5 W/m 6,4 km/h (2 Bft) 100,00 %
25.04.2021 20:50 9,7 C 8,3 C 6,1 C 61 % 1024,5 hPa 0,0 l/m 0 min 0 min 2 W/m 19,3 km/h (3 Bft) 100,00 %
25.04.2021 20:52 9,6 C 8,3 C 6,1 C 61 % 1024,6 hPa 0,0 l/m 0 min 0 min 0 W/m 9,7 km/h (2 Bft) 97,83 %
25.04.2021 20:54 9,6 C 8,3 C 6,1 C 61 % 1024,6 hPa 0,0 l/m 0 min 0 min 0 W/m 12,9 km/h (3 Bft) 100,00 %
25.04.2021 20:56 9,6 C 8,3 C 6,1 C 61 % 1024,6 hPa 0,0 l/m 0 min 0 min 0 W/m 3,2 km/h (1 Bft) 100,00 %
25.04.2021 20:58 9,5 C 8,3 C 6,1 C 62 % 1024,6 hPa 0,0 l/m 0 min 0 min 0 W/m 9,7 km/h (2 Bft) 97,87 %
25.04.2021 21:00 9,5 C 8,3 C 6,1 C 62 % 1024,6 hPa 0,0 l/m 0 min 0 min 0 W/m 12,9 km/h (3 Bft) 100,00 %
25.04.2021 21:02 9,5 C 8,3 C 6,1 C 61 % 1024,7 hPa 0,0 l/m 0 min 0 min 0 W/m 12,9 km/h (3 Bft) 100,00 %
25.04.2021 21:04 9,4 C 8,3 C 6,1 C 62 % 1024,7 hPa 0,0 l/m 0 min 0 min 0 W/m 6,4 km/h (2 Bft) 97,83 %
25.04.2021 21:06 9,4 C 8,3 C 6,1 C 61 % 1024,6 hPa 0,0 l/m 0 min 0 min 0 W/m 6,4 km/h (2 Bft) 100,00 %
25.04.2021 21:08 9,4 C 8,3 C 6,1 C 62 % 1024,6 hPa 0,0 l/m 0 min 0 min 0 W/m 3,2 km/h (1 Bft) 100,00 %
25.04.2021 21:10 9,3 C 7,8 C 6,1 C 62 % 1024,7 hPa 0,0 l/m 0 min 0 min 0 W/m 6,4 km/h (2 Bft) 100,00 %
25.04.2021 21:12 9,3 C 7,8 C 6,1 C 62 % 1024,6 hPa 0,0 l/m 0 min 0 min 0 W/m 3,2 km/h (1 Bft) 100,00 %
25.04.2021 21:14 9,3 C 7,8 C 5,6 C 62 % 1024,6 hPa 0,0 l/m 0 min 0 min 0 W/m 0,0 km/h (0 Bft) 100,00 %
25.04.2021 21:16 9,2 C 7,8 C 5,6 C 63 % 1024,6 hPa 0,0 l/m 0 min 0 min 0 W/m 3,2 km/h (1 Bft) 100,00 %
25.04.2021 21:18 9,1 C 7,8 C 5,6 C 63 % 1024,6 hPa 0,0 l/m 0 min 0 min 0 W/m 3,2 km/h (1 Bft) 100,00 %
25.04.2021 21:20 9,1 C 7,8 C 5,6 C 64 % 1024,6 hPa 0,0 l/m 0 min 0 min 0 W/m 6,4 km/h (2 Bft) 97,87 %
25.04.2021 21:22 9,0 C 7,2 C 5,0 C 64 % 1024,6 hPa 0,0 l/m 0 min 0 min 0 W/m 9,7 km/h (2 Bft) 100,00 %
25.04.2021 21:24 8,9 C 7,2 C 5,0 C 64 % 1024,6 hPa 0,0 l/m 0 min 0 min 0 W/m 3,2 km/h (1 Bft) 100,00 %
25.04.2021 21:26 8,9 C 7,2 C 5,0 C 64 % 1024,6 hPa 0,0 l/m 0 min 0 min 0 W/m 6,4 km/h (2 Bft) 100,00 %
25.04.2021 21:28 8,8 C 7,2 C 5,0 C 65 % 1024,6 hPa 0,0 l/m 0 min 0 min 0 W/m 3,2 km/h (1 Bft) 100,00 %
25.04.2021 21:30 8,8 C 7,2 C 5,0 C 65 % 1024,6 hPa 0,0 l/m 0 min 0 min 0 W/m 0,0 km/h (0 Bft) 100,00 %
25.04.2021 21:32 8,8 C 7,2 C 5,0 C 65 % 1024,7 hPa 0,0 l/m 0 min 0 min 0 W/m 3,2 km/h (1 Bft) 100,00 %
25.04.2021 21:34 8,7 C 7,2 C 5,0 C 66 % 1024,7 hPa 0,0 l/m 0 min 0 min 0 W/m 3,2 km/h (1 Bft) 100,00 %
25.04.2021 21:36 8,6 C 7,2 C 5,0 C 65 % 1024,7 hPa 0,0 l/m 0 min 0 min 0 W/m 6,4 km/h (2 Bft) 100,00 %
25.04.2021 21:38 8,6 C 7,2 C 5,0 C 65 % 1024,7 hPa 0,0 l/m 0 min 0 min 0 W/m 6,4 km/h (2 Bft) 100,00 %
25.04.2021 21:40 8,5 C 7,2 C 5,0 C 65 % 1024,7 hPa 0,0 l/m 0 min 0 min 0 W/m 3,2 km/h (1 Bft) 100,00 %
25.04.2021 21:42 8,5 C 7,2 C 5,0 C 65 % 1024,7 hPa 0,0 l/m 0 min 0 min 0 W/m 6,4 km/h (2 Bft) 100,00 %
25.04.2021 21:44 8,5 C 7,2 C 5,0 C 65 % 1024,7 hPa 0,0 l/m 0 min 0 min 0 W/m 6,4 km/h (2 Bft) 100,00 %
25.04.2021 21:46 8,4 C 7,2 C 5,0 C 65 % 1024,7 hPa 0,0 l/m 0 min 0 min 0 W/m 0,0 km/h (0 Bft) 100,00 %
25.04.2021 21:48 8,4 C 7,2 C 5,0 C 65 % 1024,7 hPa 0,0 l/m 0 min 0 min 0 W/m 3,2 km/h (1 Bft) 97,87 %
25.04.2021 21:50 8,4 C 6,7 C 5,0 C 66 % 1024,7 hPa 0,0 l/m 0 min 0 min 0 W/m 0,0 km/h (0 Bft) 97,87 %
25.04.2021 21:52 8,3 C 6,7 C 4,5 C 66 % 1024,7 hPa 0,0 l/m 0 min 0 min 0 W/m 3,2 km/h (1 Bft) 100,00 %
25.04.2021 21:54 8,3 C 6,7 C 4,5 C 66 % 1024,7 hPa 0,0 l/m 0 min 0 min 0 W/m 6,4 km/h (2 Bft) 100,00 %
25.04.2021 21:56 8,2 C 6,7 C 4,5 C 66 % 1024,6 hPa 0,0 l/m 0 min 0 min 0 W/m 3,2 km/h (1 Bft) 100,00 %
25.04.2021 21:58 8,1 C 6,7 C 4,5 C 66 % 1024,6 hPa 0,0 l/m 0 min 0 min 0 W/m 6,4 km/h (2 Bft) 97,87 %
25.04.2021 22:00 8,1 C 6,7 C 4,5 C 67 % 1024,6 hPa 0,0 l/m 0 min 0 min 0 W/m 3,2 km/h (1 Bft) 97,87 %
25.04.2021 22:02 8,0 C 6,7 C 4,5 C 67 % 1024,6 hPa 0,0 l/m 0 min 0 min 0 W/m 3,2 km/h (1 Bft) 97,83 %
25.04.2021 22:04 8,0 C 6,7 C 4,5 C 67 % 1024,6 hPa 0,0 l/m 0 min 0 min 0 W/m 3,2 km/h (1 Bft) 97,87 %
25.04.2021 22:06 8,0 C 6,1 C 4,5 C 68 % 1024,6 hPa 0,0 l/m 0 min 0 min 0 W/m 0,0 km/h (0 Bft) 97,87 %
25.04.2021 22:08 7,9 C 6,1 C 4,5 C 68 % 1024,6 hPa 0,0 l/m 0 min 0 min 0 W/m 0,0 km/h (0 Bft) 95,74 %
25.04.2021 22:10 7,9 C 6,1 C 4,5 C 68 % 1024,5 hPa 0,0 l/m 0 min 0 min 0 W/m 0,0 km/h (0 Bft) 97,87 %
25.04.2021 22:12 7,8 C 6,1 C 4,5 C 68 % 1024,5 hPa 0,0 l/m 0 min 0 min 0 W/m 6,4 km/h (2 Bft) 97,87 %
25.04.2021 22:14 7,8 C 6,1 C 3,9 C 68 % 1024,4 hPa 0,0 l/m 0 min 0 min 0 W/m 3,2 km/h (1 Bft) 100,00 %
25.04.2021 22:16 7,7 C 6,1 C 3,9 C 68 % 1024,4 hPa 0,0 l/m 0 min 0 min 0 W/m 3,2 km/h (1 Bft) 97,83 %
25.04.2021 22:18 7,6 C 6,1 C 3,9 C 68 % 1024,4 hPa 0,0 l/m 0 min 0 min 0 W/m 3,2 km/h (1 Bft) 97,87 %
25.04.2021 22:20 7,6 C 6,1 C 3,9 C 69 % 1024,3 hPa 0,0 l/m 0 min 0 min 0 W/m 3,2 km/h (1 Bft) 95,74 %
25.04.2021 22:22 7,5 C 6,1 C 3,9 C 69 % 1024,3 hPa 0,0 l/m 0 min 0 min 0 W/m 0,0 km/h (0 Bft) 97,87 %
25.04.2021 22:24 7,5 C 6,1 C 3,9 C 70 % 1024,3 hPa 0,0 l/m 0 min 0 min 0 W/m 3,2 km/h (1 Bft) 95,74 %
25.04.2021 22:26 7,5 C 6,1 C 3,9 C 70 % 1024,3 hPa 0,0 l/m 0 min 0 min 0 W/m 6,4 km/h (2 Bft) 100,00 %
25.04.2021 22:28 7,4 C 6,1 C 3,9 C 70 % 1024,3 hPa 0,0 l/m 0 min 0 min 0 W/m 0,0 km/h (0 Bft) 97,83 %
25.04.2021 22:30 7,4 C 6,1 C 3,9 C 69 % 1024,3 hPa 0,0 l/m 0 min 0 min 0 W/m 0,0 km/h (0 Bft) 97,87 %
25.04.2021 22:32 7,3 C 6,1 C 3,9 C 70 % 1024,4 hPa 0,0 l/m 0 min 0 min 0 W/m 0,0 km/h (0 Bft) 97,87 %
25.04.2021 22:34 7,3 C 6,1 C 3,9 C 70 % 1024,3 hPa 0,0 l/m 0 min 0 min 0 W/m 0,0 km/h (0 Bft) 97,87 %
25.04.2021 22:36 7,3 C 6,1 C 3,9 C 69 % 1024,4 hPa 0,0 l/m 0 min 0 min 0 W/m 0,0 km/h (0 Bft) 95,74 %
25.04.2021 22:38 7,3 C 6,1 C 3,9 C 70 % 1024,4 hPa 0,0 l/m 0 min 0 min 0 W/m 3,2 km/h (1 Bft) 97,83 %
25.04.2021 22:40 7,2 C 6,1 C 3,9 C 70 % 1024,4 hPa 0,0 l/m 0 min 0 min 0 W/m 0,0 km/h (0 Bft) 97,87 %
25.04.2021 22:42 7,1 C 6,1 C 3,9 C 69 % 1024,5 hPa 0,0 l/m 0 min 0 min 0 W/m 0,0 km/h (0 Bft) 97,87 %
25.04.2021 22:44 7,1 C 6,1 C 3,9 C 70 % 1024,4 hPa 0,0 l/m 0 min 0 min 0 W/m 0,0 km/h (0 Bft) 95,74 %
25.04.2021 22:46 7,1 C 6,1 C 3,9 C 70 % 1024,5 hPa 0,0 l/m 0 min 0 min 0 W/m 3,2 km/h (1 Bft) 93,62 %
25.04.2021 22:48 7,0 C 6,1 C 3,9 C 70 % 1024,5 hPa 0,0 l/m 0 min 0 min 0 W/m 3,2 km/h (1 Bft) 95,74 %
25.04.2021 22:50 7,0 C 6,1 C 3,9 C 70 % 1024,6 hPa 0,0 l/m 0 min 0 min 0 W/m 3,2 km/h (1 Bft) 97,83 %
25.04.2021 22:52 7,0 C 5,6 C 3,9 C 70 % 1024,6 hPa 0,0 l/m 0 min 0 min 0 W/m 0,0 km/h (0 Bft) 95,74 %
25.04.2021 22:54 7,0 C 5,6 C 3,9 C 70 % 1024,6 hPa 0,0 l/m 0 min 0 min 0 W/m 0,0 km/h (0 Bft) 97,87 %
25.04.2021 22:56 6,9 C 5,6 C 3,9 C 70 % 1024,6 hPa 0,0 l/m 0 min 0 min 0 W/m 0,0 km/h (0 Bft) 97,87 %
25.04.2021 22:58 6,9 C 5,6 C 3,9 C 70 % 1024,6 hPa 0,0 l/m 0 min 0 min 0 W/m 0,0 km/h (0 Bft) 97,87 %
25.04.2021 23:00 6,9 C 5,6 C 3,9 C 71 % 1024,6 hPa 0,0 l/m 0 min 0 min 0 W/m 0,0 km/h (0 Bft) 97,87 %
25.04.2021 23:02 6,9 C 5,6 C 3,9 C 70 % 1024,6 hPa 0,0 l/m 0 min 0 min 0 W/m 0,0 km/h (0 Bft) 97,83 %
25.04.2021 23:04 6,9 C 5,6 C 3,4 C 70 % 1024,7 hPa 0,0 l/m 0 min 0 min 0 W/m 0,0 km/h (0 Bft) 95,74 %
25.04.2021 23:06 6,9 C 5,6 C 3,4 C 70 % 1024,6 hPa 0,0 l/m 0 min 0 min 0 W/m 0,0 km/h (0 Bft) 97,87 %
25.04.2021 23:08 6,9 C 5,6 C 3,4 C 70 % 1024,6 hPa 0,0 l/m 0 min 0 min 0 W/m 0,0 km/h (0 Bft) 95,74 %
25.04.2021 23:10 6,8 C 5,6 C 3,4 C 71 % 1024,6 hPa 0,0 l/m 0 min 0 min 0 W/m 0,0 km/h (0 Bft) 97,87 %
25.04.2021 23:12 6,8 C 5,6 C 3,4 C 72 % 1024,6 hPa 0,0 l/m 0 min 0 min 0 W/m 0,0 km/h (0 Bft) 97,87 %
25.04.2021 23:14 6,8 C 5,0 C 3,4 C 72 % 1024,7 hPa 0,0 l/m 0 min 0 min 0 W/m 0,0 km/h (0 Bft) 97,83 %
25.04.2021 23:16 6,8 C 5,0 C 3,4 C 72 % 1024,7 hPa 0,0 l/m 0 min 0 min 0 W/m 0,0 km/h (0 Bft) 95,74 %
25.04.2021 23:18 6,7 C 5,0 C 2,8 C 73 % 1024,7 hPa 0,0 l/m 0 min 0 min 0 W/m 0,0 km/h (0 Bft) 97,87 %
25.04.2021 23:20 6,7 C 5,0 C 2,8 C 73 % 1024,7 hPa 0,0 l/m 0 min 0 min 0 W/m 0,0 km/h (0 Bft) 95,74 %
25.04.2021 23:22 6,6 C 5,0 C 2,8 C 73 % 1024,7 hPa 0,0 l/m 0 min 0 min 0 W/m 0,0 km/h (0 Bft) 97,87 %
25.04.2021 23:24 6,6 C 5,0 C 2,8 C 73 % 1024,7 hPa 0,0 l/m 0 min 0 min 0 W/m 0,0 km/h (0 Bft) 95,74 %
25.04.2021 23:26 6,5 C 5,0 C 2,8 C 73 % 1024,7 hPa 0,0 l/m 0 min 0 min 0 W/m 0,0 km/h (0 Bft) 95,65 %
25.04.2021 23:28 6,5 C 5,0 C 2,8 C 74 % 1024,7 hPa 0,0 l/m 0 min 0 min 0 W/m 0,0 km/h (0 Bft) 97,87 %
25.04.2021 23:30 6,4 C 5,0 C 2,8 C 74 % 1024,6 hPa 0,0 l/m 0 min 0 min 0 W/m 0,0 km/h (0 Bft) 61,70 %
25.04.2021 23:32 6,4 C 5,0 C 2,8 C 73 % 1024,6 hPa 0,0 l/m 0 min 0 min 0 W/m 0,0 km/h (0 Bft) 87,18 %
25.04.2021 23:34 6,4 C 5,0 C 2,8 C 73 % 1024,6 hPa 0,0 l/m 0 min 0 min 0 W/m 0,0 km/h (0 Bft) 95,74 %
25.04.2021 23:36 6,4 C 5,0 C 3,4 C 73 % 1024,5 hPa 0,0 l/m 0 min 0 min 0 W/m 0,0 km/h (0 Bft) 95,74 %
25.04.2021 23:38 6,3 C 5,0 C 3,4 C 73 % 1024,4 hPa 0,0 l/m 0 min 0 min 0 W/m 0,0 km/h (0 Bft) 91,30 %
25.04.2021 23:40 6,3 C 5,0 C 2,8 C 72 % 1024,5 hPa 0,0 l/m 0 min 0 min 0 W/m 0,0 km/h (0 Bft) 95,74 %
25.04.2021 23:42 6,3 C 5,0 C 2,8 C 73 % 1024,5 hPa 0,0 l/m 0 min 0 min 0 W/m 0,0 km/h (0 Bft) 95,74 %
25.04.2021 23:44 6,2 C 4,4 C 2,8 C 73 % 1024,5 hPa 0,0 l/m 0 min 0 min 0 W/m 0,0 km/h (0 Bft) 95,74 %
25.04.2021 23:46 6,2 C 4,4 C 2,8 C 74 % 1024,4 hPa 0,0 l/m 0 min 0 min 0 W/m 0,0 km/h (0 Bft) 95,74 %
25.04.2021 23:48 6,1 C 4,4 C 2,8 C 75 % 1024,4 hPa 0,0 l/m 0 min 0 min 0 W/m 0,0 km/h (0 Bft) 95,74 %
25.04.2021 23:50 6,1 C 4,4 C 2,8 C 75 % 1024,5 hPa 0,0 l/m 0 min 0 min 0 W/m 0,0 km/h (0 Bft) 97,83 %
25.04.2021 23:52 6,1 C 4,4 C 2,8 C 75 % 1024,4 hPa 0,0 l/m 0 min 0 min 0 W/m 0,0 km/h (0 Bft) 93,62 %
25.04.2021 23:54 6,0 C 4,4 C 2,3 C 76 % 1024,4 hPa 0,0 l/m 0 min 0 min 0 W/m 0,0 km/h (0 Bft) 97,87 %
25.04.2021 23:56 6,0 C 3,9 C 2,3 C 76 % 1024,4 hPa 0,0 l/m 0 min 0 min 0 W/m 0,0 km/h (0 Bft) 91,49 %
25.04.2021 23:58 5,9 C 3,9 C 2,3 C 76 % 1024,4 hPa 0,0 l/m 0 min 0 min 0 W/m 0,0 km/h (0 Bft) 97,87 %
_ Min-Zeit 05:18 04:24 04:34 16:08 22:20 - - - - 02:46 11:40
Minimum _ 3,4 C 2,8 C 0,6 C 51 % 1024,3 hPa - - - - 0,0 km/h (0 Bft) 53,49 %
_ Max-Zeit 17:32 16:36 13:30 06:50 10:52 00:00 12:08 00:00 12:36 12:36 01:24
Maximum _ 14,3 C 21,7 C 19,5 C 85 % 1028,1 hPa 0,0 l/m 4 min 0 min 944 W/m 32,2 km/h
NO (5 Bft)
100,00 %
Durchschnitt _ 8,3 C 9,5 C 6,2 C 68 % 1026,4 hPa #0,0 l/m #8:10 h #0 min. 433 W/m 10,8 km/h (2 Bft) 97,39 %
© 2021 W. Hausmann